W4HSV Weather Reports


time (UTC)temp
C
wind
direction
speed
KPH
gust
KPH
rain 1hr
cm
rain 24hr
cm
rain mn
cm
humidity
%
barometer
mb
20260903220524 35 126 6.4 11.3 0.00 0.00 0.00 51 1013.8
20260903220430 35 82 4.8 11.3 0.00 0.00 0.00 51 1013.8
20260903220359 35 106 4.8 11.3 0.00 0.00 0.00 52 1013.8
20260903220330 35 84 4.8 9.7 0.00 0.00 0.00 52 1013.9
20260903220042 35 114 8.0 12.9 0.00 0.00 0.00 51 1013.8
20260903215931 35 103 6.4 14.5 0.00 0.00 0.00 51 1013.8
20260903215818 35 100 3.2 14.5 0.00 0.00 0.00 52 1013.7
20260903215723 35 119 3.2 14.5 0.00 0.00 0.00 53 1013.7
20260903215631 35 72 4.8 14.5 0.00 0.00 0.00 52 1013.7
20260903215518 35 88 6.4 14.5 0.00 0.00 0.00 51 1013.7
20260903215425 35 82 6.4 14.5 0.00 0.00 0.00 51 1013.7
20260903215334 35 84 6.4 14.5 0.00 0.00 0.00 50 1013.7
20260903215242 35 96 8.0 14.5 0.00 0.00 0.00 51 1013.6
20260903215128 35 36 8.0 14.5 0.00 0.00 0.00 50 1013.7
20260903215034 35 78 8.0 14.5 0.00 0.00 0.00 51 1013.6
20260903214920 35 113 8.0 14.5 0.00 0.00 0.00 52 1013.7
20260903214826 35 114 9.7 14.5 0.00 0.00 0.00 52 1013.7
20260903214801 35 79 8.0 14.5 0.00 0.00 0.00 51 1013.7
20260903214534 35 49 4.8 14.5 0.00 0.00 0.00 51 1013.7
20260903214440 35 11 4.8 17.7 0.00 0.00 0.00 51 1013.7
20260903214326 35 42 4.8 17.7 0.00 0.00 0.00 52 1013.7
20260903214251 35 80 6.4 17.7 0.00 0.00 0.00 52 1013.7
20260903214121 35 67 9.7 17.7 0.00 0.00 0.00 52 1013.8
20260903214048 35 72 9.7 17.7 0.00 0.00 0.00 51 1013.8
20260903213935 35 64 8.0 17.7 0.00 0.00 0.00 51 1013.8
20260903213821 35 66 6.4 17.7 0.00 0.00 0.00 51 1013.9
20260903213727 35 61 8.0 17.7 0.00 0.00 0.00 51 1013.9
20260903213655 35 20 9.7 17.7 0.00 0.00 0.00 50 1013.8
20260903213526 35 61 9.7 17.7 0.00 0.00 0.00 51 1013.8
20260903213432 35 84 8.0 17.7 0.00 0.00 0.00 51 1013.9
20260903213359 35 78 6.4 17.7 0.00 0.00 0.00 51 1013.9
20260903213329 35 71 6.4 17.7 0.00 0.00 0.00 50 1013.9
20260903213022 35 5 9.7 19.3 0.00 0.00 0.00 50 1013.9
20260903212933 35 69 8.0 19.3 0.00 0.00 0.00 49 1014.0
20260903212820 35 77 9.7 20.9 0.00 0.00 0.00 49 1014.0
20260903212727 35 105 11.3 20.9 0.00 0.00 0.00 49 1013.9
20260903212633 35 85 12.9 20.9 0.00 0.00 0.00 49 1013.9
20260903212521 35 27 9.7 20.9 0.00 0.00 0.00 49 1014.0
20260903212428 35 80 6.4 22.5 0.00 0.00 0.00 49 1014.0
20260903212317 35 60 8.0 22.5 0.00 0.00 0.00 48 1013.9
20260903212224 35 9 9.7 22.5 0.00 0.00 0.00 48 1014.0
20260903212130 36 46 9.7 22.5 0.00 0.00 0.00 48 1013.9
20260903212036 36 61 11.3 24.1 0.00 0.00 0.00 48 1013.9
20260903211922 36 83 12.9 24.1 0.00 0.00 0.00 48 1014.0
20260903211829 36 60 12.9 24.1 0.00 0.00 0.00 48 1013.9
20260903211804 36 64 11.3 24.1 0.00 0.00 0.00 49 1013.9
20260903211537 36 37 6.4 24.1 0.00 0.00 0.00 49 1014.0
20260903211443 36 320 8.0 24.1 0.00 0.00 0.00 49 1014.0
20260903211246 36 22 17.7 24.1 0.00 0.00 0.00 49 1014.0
20260903211131 37 31 16.1 24.1 0.00 0.00 0.00 49 1014.0
20260903211022 37 61 12.9 22.5 0.00 0.00 0.00 49 1014.1
20260903210928 37 26 9.7 17.7 0.00 0.00 0.00 49 1014.0
20260903210856 37 38 8.0 17.7 0.00 0.00 0.00 48 1013.8
20260903210721 36 39 8.0 17.7 0.00 0.00 0.00 49 1014.0
20260903210649 36 24 8.0 17.7 0.00 0.00 0.00 49 1014.0
20260903210555 36 58 9.7 17.7 0.00 0.00 0.00 51 1013.9
20260903210422 36 73 9.7 17.7 0.00 0.00 0.00 50 1013.9
20260903210334 36 30 9.7 17.7 0.00 0.00 0.00 53 1013.9
20260903210305 36 88 11.3 17.7 0.00 0.00 0.00 53 1013.9
20260903210038 36 29 6.4 12.9 0.00 0.00 0.00 49 1014.0
20260903205923 36 50 4.8 11.3 0.00 0.00 0.00 49 1014.0
20260903205830 36 66 3.2 11.3 0.00 0.00 0.00 51 1013.9
20260903205722 36 15 4.8 11.3 0.00 0.00 0.00 51 1013.9
20260903205629 36 162 6.4 11.3 0.00 0.00 0.00 48 1014.0
20260903205556 36 140 8.0 11.3 0.00 0.00 0.00 50 1014.0
20260903205422 36 132 4.8 11.3 0.00 0.00 0.00 50 1013.9
20260903205349 36 139 3.2 9.7 0.00 0.00 0.00 49 1014.0
20260903205235 36 92 4.8 9.7 0.00 0.00 0.00 51 1014.0
20260903205126 36 117 4.8 9.7 0.00 0.00 0.00 50 1014.0
20260903205034 36 96 4.8 9.7 0.00 0.00 0.00 49 1014.0
20260903204921 36 336 3.2 8.0 0.00 0.00 0.00 49 1014.0
20260903204802 37 150 3.2 8.0 0.00 0.00 0.00 49 1014.0
20260903204535 37 229 4.8 14.5 0.00 0.00 0.00 50 1014.1
20260903204442 37 215 3.2 14.5 0.00 0.00 0.00 49 1014.0
20260903204329 37 118 3.2 14.5 0.00 0.00 0.00 52 1014.0
20260903204255 37 109 4.8 14.5 0.00 0.00 0.00 49 1014.0
20260903204121 37 127 4.8 14.5 0.00 0.00 0.00 48 1014.1
20260903204049 37 107 3.2 14.5 0.00 0.00 0.00 48 1014.0
20260903203938 37 210 8.0 14.5 0.00 0.00 0.00 49 1014.1
20260903203826 37 240 8.0 14.5 0.00 0.00 0.00 48 1014.0
20260903203733 37 254 6.4 16.1 0.00 0.00 0.00 49 1014.0
20260903203640 37 212 6.4 16.1 0.00 0.00 0.00 50 1014.2
20260903203525 37 227 6.4 16.1 0.00 0.00 0.00 50 1014.1
20260903203432 37 225 4.8 16.1 0.00 0.00 0.00 52 1014.1
20260903203322 37 225 6.4 16.1 0.00 0.00 0.00 50 1014.1
20260903203253 37 187 6.4 16.1 0.00 0.00 0.00 49 1014.1
20260903203025 37 209 8.0 16.1 0.00 0.00 0.00 50 1014.2
20260903202931 37 216 8.0 16.1 0.00 0.00 0.00 50 1014.3
20260903202818 37 199 4.8 9.7 0.00 0.00 0.00 50 1014.2
20260903202729 37 274 6.4 12.9 0.00 0.00 0.00 51 1014.3
20260903202635 37 232 4.8 12.9 0.00 0.00 0.00 50 1014.3
20260903202522 37 236 1.6 16.1 0.00 0.00 0.00 50 1014.3
20260903202430 37 162 3.2 16.1 0.00 0.00 0.00 49 1014.3
20260903202336 37 136 3.2 16.1 0.00 0.00 0.00 49 1014.4
20260903202226 37 171 4.8 16.1 0.00 0.00 0.00 47 1014.4
20260903202134 37 186 6.4 16.1 0.00 0.00 0.00 47 1014.4
20260903202019 37 182 8.0 17.7 0.00 0.00 0.00 49 1014.5
20260903201926 37 168 9.7 20.9 0.00 0.00 0.00 50 1014.4
20260903201852 37 146 11.3 20.9 0.00 0.00 0.00 49 1014.5
20260903201801 37 171 11.3 20.9 0.00 0.00 0.00 49 1014.5
20260903201538 37 170 9.7 20.9 0.00 0.00 0.00 50 1014.5
20260903201424 37 171 9.7 20.9 0.00 0.00 0.00 48 1014.5
20260903201351 37 196 11.3 20.9 0.00 0.00 0.00 49 1014.5
20260903201218 37 194 12.9 20.9 0.00 0.00 0.00 49 1014.5
20260903201123 37 183 8.0 20.9 0.00 0.00 0.00 49 1014.5
20260903201029 37 185 6.4 14.5 0.00 0.00 0.00 52 1014.5
20260903200920 37 131 6.4 14.5 0.00 0.00 0.00 49 1014.5
20260903200847 37 201 4.8 14.5 0.00 0.00 0.00 50 1014.5
20260903200733 37 240 8.0 14.5 0.00 0.00 0.00 49 1014.5
20260903200620 37 223 9.7 14.5 0.00 0.00 0.00 49 1014.6
20260903200527 37 223 8.0 14.5 0.00 0.00 0.00 49 1014.6
20260903200433 37 209 4.8 16.1 0.00 0.00 0.00 49 1014.6
20260903200400 36 214 3.2 12.9 0.00 0.00 0.00 49 1014.6
20260903200314 36 218 4.8 12.9 0.00 0.00 0.00 49 1014.6
20260903200026 36 205 6.4 16.1 0.00 0.00 0.00 50 1014.6
20260903195933 36 209 4.8 16.1 0.00 0.00 0.00 49 1014.6
20260903195819 36 189 4.8 16.1 0.00 0.00 0.00 48 1014.7
20260903195729 36 202 6.4 16.1 0.00 0.00 0.00 49 1014.7
20260903195635 36 273 8.0 16.1 0.00 0.00 0.00 48 1014.7
20260903195522 36 192 8.0 16.1 0.00 0.00 0.00 49 1014.7
20260903195430 36 183 8.0 16.1 0.00 0.00 0.00 48 1014.7
20260903195317 36 200 9.7 16.1 0.00 0.00 0.00 50 1014.6
20260903195224 36 205 8.0 16.1 0.00 0.00 0.00 50 1014.6
20260903195134 36 205 4.8 11.3 0.00 0.00 0.00 50 1014.8
20260903195021 36 201 3.2 11.3 0.00 0.00 0.00 50 1014.7
20260903194927 36 210 3.2 11.3 0.00 0.00 0.00 49 1014.7
20260903194834 36 178 6.4 11.3 0.00 0.00 0.00 52 1014.7
20260903194809 36 178 6.4 11.3 0.00 0.00 0.00 49 1014.7
20260903194521 36 207 8.0 11.3 0.00 0.00 0.00 49 1014.8
20260903194429 36 182 6.4 11.3 0.00 0.00 0.00 49 1014.9
20260903194354 36 171 6.4 11.3 0.00 0.00 0.00 51 1014.8
20260903194219 36 200 6.4 11.3 0.00 0.00 0.00 50 1014.9
20260903194126 36 210 6.4 11.3 0.00 0.00 0.00 49 1014.9
20260903194018 36 204 4.8 11.3 0.00 0.00 0.00 51 1014.9
20260903193945 36 171 4.8 11.3 0.00 0.00 0.00 50 1014.9
20260903193852 36 188 4.8 9.7 0.00 0.00 0.00 49 1014.8
20260903193719 36 162 4.8 9.7 0.00 0.00 0.00 49 1015.0
20260903193627 36 273 3.2 9.7 0.00 0.00 0.00 49 1014.9
20260903193534 36 238 1.6 9.7 0.00 0.00 0.00 50 1014.9
20260903193424 36 184 3.2 9.7 0.00 0.00 0.00 49 1014.9
20260903193331 36 220 3.2 9.7 0.00 0.00 0.00 49 1014.9
20260903193303 36 220 4.8 9.7 0.00 0.00 0.00 50 1014.9
20260903193036 36 232 4.8 8.0 0.00 0.00 0.00 50 1015.1
20260903192922 36 9 6.4 8.0 0.00 0.00 0.00 49 1015.1
20260903192834 36 99 6.4 8.0 0.00 0.00 0.00 49 1015.1
20260903192719 36 117 4.8 8.0 0.00 0.00 0.00 51 1015.0
20260903192627 36 53 4.8 8.0 0.00 0.00 0.00 51 1015.0
20260903192533 36 94 4.8 8.0 0.00 0.00 0.00 50 1015.0
20260903192420 36 35 3.2 6.4 0.00 0.00 0.00 50 1015.1
20260903192330 36 30 1.6 6.4 0.00 0.00 0.00 50 1015.0
20260903192236 36 50 1.6 6.4 0.00 0.00 0.00 50 1015.0
20260903192124 36 275 3.2 6.4 0.00 0.00 0.00 50 1015.0
20260903192030 36 210 3.2 11.3 0.00 0.00 0.00 50 1015.1
20260903191935 35 234 3.2 12.9 0.00 0.00 0.00 51 1015.1
20260903191823 35 205 1.6 12.9 0.00 0.00 0.00 51 1015.1
20260903191758 35 250 1.6 12.9 0.00 0.00 0.00 51 1015.1
20260903191531 35 334 1.6 12.9 0.00 0.00 0.00 50 1015.2
20260903191439 35 40 4.8 12.9 0.00 0.00 0.00 52 1015.3
20260903191325 35 104 6.4 12.9 0.00 0.00 0.00 52 1015.3
20260903191232 35 120 8.0 12.9 0.00 0.00 0.00 53 1015.3
20260903191123 35 130 6.4 12.9 0.00 0.00 0.00 52 1015.3
20260903191050 35 109 3.2 12.9 0.00 0.00 0.00 50 1015.4
20260903190957 35 112 1.6 3.2 0.00 0.00 0.00 51 1015.4
20260903190821 35 221 1.6 4.8 0.00 0.00 0.00 51 1015.4
20260903190729 35 184 0.0 8.0 0.00 0.00 0.00 51 1015.5
20260903190634 35 144 1.6 8.0 0.00 0.00 0.00 50 1015.5
20260903190546 35 144 1.6 8.0 0.00 0.00 0.00 51 1015.4
20260903190431 35 144 0.0 8.0 0.00 0.00 0.00 50 1015.5
20260903190357 35 144 0.0 8.0 0.00 0.00 0.00 50 1015.5
20260903190328 35 144 1.6 12.9 0.00 0.00 0.00 50 1015.4
20260903190038 35 144 4.8 12.9 0.00 0.00 0.00 53 1015.6
20260903185924 35 190 4.8 12.9 0.00 0.00 0.00 52 1015.5
20260903185836 35 191 4.8 14.5 0.00 0.00 0.00 54 1015.5
20260903185722 35 109 4.8 14.5 0.00 0.00 0.00 53 1015.6
20260903185628 35 130 6.4 14.5 0.00 0.00 0.00 53 1015.6
20260903185535 35 134 6.4 14.5 0.00 0.00 0.00 52 1015.5
20260903185422 35 136 8.0 14.5 0.00 0.00 0.00 52 1015.5
20260903185333 35 136 8.0 14.5 0.00 0.00 0.00 53 1015.5
20260903185219 35 176 8.0 14.5 0.00 0.00 0.00 54 1015.6
20260903185127 35 187 9.7 14.5 0.00 0.00 0.00 55 1015.5
20260903185035 35 178 11.3 14.5 0.00 0.00 0.00 54 1015.5
20260903184942 35 142 6.4 12.9 0.00 0.00 0.00 55 1015.6
20260903184828 35 119 3.2 12.9 0.00 0.00 0.00 54 1015.5
20260903184802 35 118 1.6 4.8 0.00 0.00 0.00 52 1015.5
20260903184536 35 49 3.2 4.8 0.00 0.00 0.00 51 1015.7
20260903184423 35 98 3.2 6.4 0.00 0.00 0.00 51 1015.6
20260903184330 35 164 1.6 6.4 0.00 0.00 0.00 52 1015.6
20260903184220 35 232 1.6 8.0 0.00 0.00 0.00 51 1015.6
20260903184128 35 273 1.6 8.0 0.00 0.00 0.00 51 1015.6
20260903184035 35 273 3.2 8.0 0.00 0.00 0.00 51 1015.8
20260903183942 35 274 3.2 8.0 0.00 0.00 0.00 51 1015.8
20260903183827 35 276 3.2 8.0 0.00 0.00 0.00 51 1015.7
20260903183733 35 276 3.2 8.0 0.00 0.00 0.00 51 1015.7
20260903183624 35 304 3.2 8.0 0.00 0.00 0.00 51 1015.7
20260903183529 35 290 4.8 8.0 0.00 0.00 0.00 51 1015.7
20260903183436 35 36 4.8 9.7 0.00 0.00 0.00 51 1015.6
20260903183323 35 44 3.2 12.9 0.00 0.00 0.00 51 1015.7
20260903183253 35 5 4.8 12.9 0.00 0.00 0.00 51 1015.7
20260903183050 35 84 4.8 12.9 0.00 0.00 0.00 50 1015.8
20260903182937 35 122 4.8 12.9 0.00 0.00 0.00 50 1015.8
20260903182823 35 48 4.8 12.9 0.00 0.00 0.00 50 1015.8
20260903182731 35 74 4.8 12.9 0.00 0.00 0.00 49 1015.9
20260903182638 35 70 4.8 12.9 0.00 0.00 0.00 50 1015.9
20260903182524 36 65 4.8 12.9 0.00 0.00 0.00 51 1015.8
20260903182450 36 119 6.4 12.9 0.00 0.00 0.00 50 1015.9
20260903182320 36 83 6.4 12.9 0.00 0.00 0.00 51 1015.8
20260903182225 36 113 6.4 12.9 0.00 0.00 0.00 50 1015.8
20260903182132 36 67 8.0 12.9 0.00 0.00 0.00 51 1015.9
20260903182019 36 74 8.0 12.9 0.00 0.00 0.00 51 1015.9
20260903181926 36 71 8.0 12.9 0.00 0.00 0.00 52 1015.9
20260903181837 36 103 6.4 12.9 0.00 0.00 0.00 52 1015.9
20260903181808 36 54 4.8 9.7 0.00 0.00 0.00 52 1015.9
20260903181542 35 82 1.6 9.7 0.00 0.00 0.00 53 1016.0
20260903181448 35 28 1.6 9.7 0.00 0.00 0.00 51 1016.1
20260903181335 35 322 1.6 9.7 0.00 0.00 0.00 53 1016.0
20260903181225 35 355 1.6 9.7 0.00 0.00 0.00 51 1016.1
20260903181131 35 19 3.2 9.7 0.00 0.00 0.00 51 1016.1
20260903181018 35 355 4.8 9.7 0.00 0.00 0.00 51 1016.1
20260903180925 36 355 6.4 9.7 0.00 0.00 0.00 52 1016.0
20260903180833 36 312 6.4 9.7 0.00 0.00 0.00 51 1016.2
20260903180740 36 355 4.8 11.3 0.00 0.00 0.00 51 1016.2
20260903180631 36 318 3.2 8.0 0.00 0.00 0.00 50 1016.2
20260903180519 36 144 3.2 11.3 0.00 0.00 0.00 53 1016.2
20260903180427 36 162 3.2 11.3 0.00 0.00 0.00 51 1016.2
20260903180354 36 124 4.8 14.5 0.00 0.00 0.00 51 1016.1
20260903180303 36 136 4.8 14.5 0.00 0.00 0.00 51 1016.1
20260903180020 36 95 4.8 14.5 0.00 0.00 0.00 50 1016.2
20260903175927 36 130 4.8 14.5 0.00 0.00 0.00 51 1016.2
20260903175833 36 129 4.8 14.5 0.00 0.00 0.00 49 1016.1
20260903175720 36 30 6.4 14.5 0.00 0.00 0.00 49 1016.2
20260903175627 36 43 8.0 14.5 0.00 0.00 0.00 49 1016.2
20260903175532 36 49 8.0 14.5 0.00 0.00 0.00 49 1016.2
20260903175443 36 90 6.4 12.9 0.00 0.00 0.00 51 1016.2
20260903175331 36 32 4.8 11.3 0.00 0.00 0.00 49 1016.3
20260903175217 36 39 3.2 11.3 0.00 0.00 0.00 52 1016.2
20260903175123 36 60 3.2 11.3 0.00 0.00 0.00 50 1016.3
20260903175050 36 16 6.4 11.3 0.00 0.00 0.00 52 1016.2
20260903174935 36 53 8.0 12.9 0.00 0.00 0.00 51 1016.3
20260903174826 36 48 6.4 11.3 0.00 0.00 0.00 53 1016.2
20260903174757 36 24 4.8 9.7 0.00 0.00 0.00 51 1016.2
20260903174550 36 49 3.2 11.3 0.00 0.00 0.00 55 1016.2
20260903174417 36 355 3.2 11.3 0.00 0.00 0.00 53 1016.3
20260903174321 36 327 4.8 11.3 0.00 0.00 0.00 52 1016.3
20260903174248 36 355 3.2 11.3 0.00 0.00 0.00 54 1016.3
20260903174134 36 337 3.2 11.3 0.00 0.00 0.00 51 1016.3
20260903174040 36 39 3.2 14.5 0.00 0.00 0.00 53 1016.3
20260903173926 36 39 4.8 14.5 0.00 0.00 0.00 52 1016.3
20260903173834 36 42 6.4 14.5 0.00 0.00 0.00 53 1016.3
20260903173721 36 32 8.0 14.5 0.00 0.00 0.00 52 1016.4
20260903173628 36 45 6.4 14.5 0.00 0.00 0.00 51 1016.4
20260903173517 36 86 6.4 14.5 0.00 0.00 0.00 52 1016.4
20260903173424 36 40 6.4 14.5 0.00 0.00 0.00 54 1016.4
20260903173351 36 35 6.4 14.5 0.00 0.00 0.00 54 1016.5
20260903173259 36 9 4.8 14.5 0.00 0.00 0.00 53 1016.5
20260903173032 36 55 1.6 12.9 0.00 0.00 0.00 51 1016.4
20260903172922 36 269 1.6 12.9 0.00 0.00 0.00 52 1016.5
20260903172830 36 89 1.6 12.9 0.00 0.00 0.00 50 1016.5
20260903172737 36 94 4.8 12.9 0.00 0.00 0.00 50 1016.5
20260903172622 36 90 6.4 12.9 0.00 0.00 0.00 51 1016.5
20260903172530 36 65 6.4 12.9 0.00 0.00 0.00 54 1016.5
20260903172419 36 91 8.0 12.9 0.00 0.00 0.00 55 1016.5
20260903172325 36 100 4.8 12.9 0.00 0.00 0.00 56 1016.5
20260903172233 36 171 3.2 11.3 0.00 0.00 0.00 56 1016.5
20260903172139 36 29 3.2 8.0 0.00 0.00 0.00 52 1016.6
20260903172024 36 82 3.2 8.0 0.00 0.00 0.00 54 1016.6
20260903171951 36 348 4.8 8.0 0.00 0.00 0.00 52 1016.6
20260903171817 36 267 4.8 8.0 0.00 0.00 0.00 54 1016.6
20260903171753 36 236 4.8 8.0 0.00 0.00 0.00 54 1016.6
20260903171525 36 347 4.8 8.0 0.00 0.00 0.00 53 1016.7
20260903171433 36 340 4.8 9.7 0.00 0.00 0.00 52 1016.7
20260903171320 36 349 3.2 9.7 0.00 0.00 0.00 53 1016.8
20260903171231 36 304 3.2 9.7 0.00 0.00 0.00 54 1016.7
20260903171117 36 10 4.8 9.7 0.00 0.00 0.00 55 1016.8
20260903171043 36 9 4.8 9.7 0.00 0.00 0.00 56 1016.7
20260903170929 36 344 6.4 9.7 0.00 0.00 0.00 58 1016.8
20260903170836 36 339 4.8 9.7 0.00 0.00 0.00 56 1016.8
20260903170742 36 10 4.8 9.7 0.00 0.00 0.00 52 1016.7
20260903170629 36 153 6.4 9.7 0.00 0.00 0.00 54 1016.8
20260903170540 36 51 4.8 9.7 0.00 0.00 0.00 55 1016.7
20260903170425 36 24 4.8 9.7 0.00 0.00 0.00 54 1016.8
20260903170332 36 35 4.8 9.7 0.00 0.00 0.00 55 1016.8
20260903170303 36 27 3.2 9.7 0.00 0.00 0.00 55 1016.8
20260903170019 36 30 4.8 9.7 0.00 0.00 0.00 56 1016.9
20260903165926 36 5 6.4 9.7 0.00 0.00 0.00 57 1016.9
20260903165832 35 5 6.4 9.7 0.00 0.00 0.00 60 1016.8
20260903165720 35 37 4.8 9.7 0.00 0.00 0.00 59 1016.8
20260903165627 35 9 3.2 9.7 0.00 0.00 0.00 59 1016.9
20260903165534 35 334 3.2 8.0 0.00 0.00 0.00 57 1017.0
20260903165424 35 332 3.2 9.7 0.00 0.00 0.00 57 1017.0
20260903165330 35 294 4.8 9.7 0.00 0.00 0.00 59 1016.9
20260903165256 35 360 6.4 9.7 0.00 0.00 0.00 59 1016.9
20260903165122 35 65 3.2 9.7 0.00 0.00 0.00 58 1017.0
20260903165028 35 36 1.6 9.7 0.00 0.00 0.00 56 1016.9
20260903164935 35 75 3.2 9.7 0.00 0.00 0.00 58 1017.0
20260903164847 35 52 4.8 9.7 0.00 0.00 0.00 57 1017.0
20260903164755 35 33 4.8 9.7 0.00 0.00 0.00 56 1017.0
20260903164548 35 194 4.8 9.7 0.00 0.00 0.00 55 1017.0
20260903164435 35 205 3.2 9.7 0.00 0.00 0.00 56 1017.0
20260903164341 35 166 1.6 9.7 0.00 0.00 0.00 57 1017.0
20260903164227 35 142 3.2 9.7 0.00 0.00 0.00 57 1017.1
20260903164118 35 96 3.2 9.7 0.00 0.00 0.00 57 1017.1
20260903164025 35 86 4.8 9.7 0.00 0.00 0.00 53 1017.1
20260903163932 35 111 4.8 9.7 0.00 0.00 0.00 55 1017.0
20260903163817 35 79 3.2 9.7 0.00 0.00 0.00 55 1017.0
20260903163723 35 90 3.2 9.7 0.00 0.00 0.00 57 1017.1
20260903163635 35 45 4.8 9.7 0.00 0.00 0.00 56 1017.0
20260903163520 35 24 3.2 9.7 0.00 0.00 0.00 55 1017.2
20260903163428 35 134 3.2 9.7 0.00 0.00 0.00 55 1017.1
20260903163334 35 134 3.2 12.9 0.00 0.00 0.00 58 1017.1
20260903163305 35 133 3.2 12.9 0.00 0.00 0.00 58 1017.1
20260903163041 35 325 3.2 12.9 0.00 0.00 0.00 58 1017.1
20260903162926 35 13 4.8 12.9 0.00 0.00 0.00 59 1017.1
20260903162832 35 46 4.8 12.9 0.00 0.00 0.00 59 1017.1
20260903162757 35 32 4.8 12.9 0.00 0.00 0.00 60 1017.1
20260903162623 35 10 6.4 12.9 0.00 0.00 0.00 59 1017.1
20260903162549 35 355 6.4 12.9 0.00 0.00 0.00 59 1017.2
20260903162436 35 19 6.4 12.9 0.00 0.00 0.00 59 1017.2
20260903162348 35 5 3.2 9.7 0.00 0.00 0.00 61 1017.2
20260903162233 35 137 4.8 9.7 0.00 0.00 0.00 60 1017.2
20260903162122 35 133 4.8 9.7 0.00 0.00 0.00 61 1017.2
20260903162029 35 108 3.2 9.7 0.00 0.00 0.00 60 1017.2
20260903161935 35 55 1.6 8.0 0.00 0.00 0.00 58 1017.2
20260903161903 35 157 1.6 8.0 0.00 0.00 0.00 58 1017.2
20260903161817 35 211 1.6 8.0 0.00 0.00 0.00 58 1017.2
20260903161529 35 295 3.2 8.0 0.00 0.00 0.00 58 1017.3
20260903161436 35 288 4.8 8.0 0.00 0.00 0.00 59 1017.4
20260903161342 35 335 3.2 6.4 0.00 0.00 0.00 61 1017.3
20260903161227 35 336 1.6 8.0 0.00 0.00 0.00 59 1017.4
20260903161133 35 336 1.6 8.0 0.00 0.00 0.00 59 1017.3
20260903161024 35 94 3.2 8.0 0.00 0.00 0.00 58 1017.3
20260903160931 35 58 3.2 8.0 0.00 0.00 0.00 58 1017.3
20260903160817 35 51 3.2 9.7 0.00 0.00 0.00 59 1017.4
20260903160723 35 39 3.2 12.9 0.00 0.00 0.00 58 1017.3
20260903160630 35 21 3.2 12.9 0.00 0.00 0.00 58 1017.3
20260903160522 35 45 4.8 12.9 0.00 0.00 0.00 60 1017.4
20260903160429 35 28 4.8 12.9 0.00 0.00 0.00 59 1017.5
20260903160337 35 37 4.8 12.9 0.00 0.00 0.00 58 1017.4
20260903160307 35 5 4.8 12.9 0.00 0.00 0.00 58 1017.4
20260903160040 35 79 4.8 12.9 0.00 0.00 0.00 58 1017.4
20260903155946 35 16 4.8 12.9 0.00 0.00 0.00 58 1017.4
20260903155835 35 56 4.8 9.7 0.00 0.00 0.00 58 1017.4
20260903155721 35 51 6.4 9.7 0.00 0.00 0.00 59 1017.4
20260903155629 35 56 4.8 12.9 0.00 0.00 0.00 59 1017.4
20260903155536 35 338 3.2 12.9 0.00 0.00 0.00 59 1017.4
20260903155422 35 89 4.8 12.9 0.00 0.00 0.00 60 1017.4
20260903155350 35 73 4.8 12.9 0.00 0.00 0.00 59 1017.4
20260903155219 35 46 3.2 12.9 0.00 0.00 0.00 59 1017.5
20260903155126 35 49 3.2 12.9 0.00 0.00 0.00 58 1017.4
20260903155032 35 34 4.8 12.9 0.00 0.00 0.00 62 1017.4
20260903154917 35 42 4.8 12.9 0.00 0.00 0.00 61 1017.4
20260903154825 35 40 1.6 12.9 0.00 0.00 0.00 58 1017.5
20260903154759 35 30 1.6 9.7 0.00 0.00 0.00 58 1017.5
20260903154533 35 148 3.2 9.7 0.00 0.00 0.00 59 1017.4
20260903154420 35 121 3.2 9.7 0.00 0.00 0.00 60 1017.4
20260903154327 35 120 3.2 9.7 0.00 0.00 0.00 60 1017.4
20260903154218 35 26 3.2 9.7 0.00 0.00 0.00 59 1017.5
20260903154125 35 78 3.2 9.7 0.00 0.00 0.00 58 1017.5
20260903154033 35 33 4.8 9.7 0.00 0.00 0.00 59 1017.5
20260903153919 35 20 4.8 6.4 0.00 0.00 0.00 59 1017.4
20260903153826 35 355 3.2 8.0 0.00 0.00 0.00 59 1017.4
20260903153733 35 350 3.2 9.7 0.00 0.00 0.00 59 1017.4
20260903153625 35 309 3.2 9.7 0.00 0.00 0.00 59 1017.4
20260903153530 35 315 3.2 9.7 0.00 0.00 0.00 61 1017.4
20260903153418 35 5 3.2 9.7 0.00 0.00 0.00 59 1017.4
20260903153345 35 329 3.2 9.7 0.00 0.00 0.00 59 1017.5
20260903153316 34 355 4.8 9.7 0.00 0.00 0.00 59 1017.5
20260903153031 34 47 6.4 9.7 0.00 0.00 0.00 60 1017.4
20260903152919 34 35 6.4 9.7 0.00 0.00 0.00 60 1017.4
20260903152826 34 40 4.8 9.7 0.00 0.00 0.00 60 1017.4
20260903152732 34 46 4.8 9.7 0.00 0.00 0.00 62 1017.3
20260903152639 34 44 4.8 9.7 0.00 0.00 0.00 61 1017.4
20260903152544 34 55 1.6 9.7 0.00 0.00 0.00 60 1017.5
20260903152435 34 59 0.0 9.7 0.00 0.00 0.00 59 1017.4
20260903152322 34 89 1.6 9.7 0.00 0.00 0.00 61 1017.4
20260903152229 34 76 3.2 9.7 0.00 0.00 0.00 62 1017.4
20260903152117 34 30 6.4 9.7 0.00 0.00 0.00 61 1017.4
20260903152023 34 36 8.0 9.7 0.00 0.00 0.00 61 1017.4
20260903151932 34 42 6.4 9.7 0.00 0.00 0.00 61 1017.5
20260903151843 34 37 4.8 9.7 0.00 0.00 0.00 61 1017.4
20260903151813 34 37 4.8 9.7 0.00 0.00 0.00 60 1017.4
20260903151524 34 52 6.4 9.7 0.00 0.00 0.00 62 1017.4
20260903151432 34 65 4.8 9.7 0.00 0.00 0.00 62 1017.3
20260903151322 34 355 4.8 6.4 0.00 0.00 0.00 61 1017.4
20260903151229 34 342 3.2 6.4 0.00 0.00 0.00 61 1017.4
20260903151136 34 11 1.6 6.4 0.00 0.00 0.00 60 1017.4
20260903151023 34 348 1.6 6.4 0.00 0.00 0.00 60 1017.4
20260903150930 34 305 1.6 6.4 0.00 0.00 0.00 61 1017.3
20260903150857 34 305 3.2 6.4 0.00 0.00 0.00 60 1017.3
20260903150742 34 311 3.2 9.7 0.00 0.00 0.00 61 1017.3
20260903150633 34 346 4.8 9.7 0.00 0.00 0.00 61 1017.3
20260903150540 33 333 3.2 9.7 0.00 0.00 0.00 59 1017.3
20260903150426 33 342 1.6 9.7 0.00 0.00 0.00 60 1017.2
20260903150332 33 349 1.6 9.7 0.00 0.00 0.00 59 1017.3
20260903150305 33 349 3.2 9.7 0.00 0.00 0.00 59 1017.3
20260903150044 33 86 4.8 9.7 0.00 0.00 0.00 60 1017.3
20260903145948 33 42 4.8 9.7 0.00 0.00 0.00 61 1017.3
20260903145835 33 5 3.2 8.0 0.00 0.00 0.00 59 1017.3
20260903145721 33 32 1.6 4.8 0.00 0.00 0.00 60 1017.3
20260903145629 33 43 1.6 4.8 0.00 0.00 0.00 59 1017.3
20260903145535 33 58 1.6 4.8 0.00 0.00 0.00 60 1017.3
20260903145425 33 43 1.6 6.4 0.00 0.00 0.00 62 1017.2
20260903145332 33 32 3.2 6.4 0.00 0.00 0.00 62 1017.2
20260903145239 33 33 4.8 6.4 0.00 0.00 0.00 62 1017.2
20260903145126 33 26 3.2 6.4 0.00 0.00 0.00 62 1017.3
20260903145032 32 32 1.6 6.4 0.00 0.00 0.00 62 1017.2
20260903144920 32 63 1.6 6.4 0.00 0.00 0.00 62 1017.2
20260903144830 32 34 3.2 6.4 0.00 0.00 0.00 62 1017.3
20260903144801 32 34 3.2 6.4 0.00 0.00 0.00 64 1017.3
20260903144533 32 36 3.2 6.4 0.00 0.00 0.00 65 1017.2
20260903144438 32 316 1.6 3.2 0.00 0.00 0.00 65 1017.2
20260903144325 32 302 1.6 3.2 0.00 0.00 0.00 65 1017.1
20260903144257 32 311 1.6 3.2 0.00 0.00 0.00 64 1017.1
20260903144123 32 306 1.6 3.2 0.00 0.00 0.00 64 1017.1
20260903144030 32 292 1.6 3.2 0.00 0.00 0.00 64 1017.2
20260903143936 32 292 1.6 3.2 0.00 0.00 0.00 64 1017.2
20260903143822 32 309 1.6 3.2 0.00 0.00 0.00 64 1017.2
20260903143729 32 329 1.6 3.2 0.00 0.00 0.00 64 1017.2
20260903143619 32 309 0.0 3.2 0.00 0.00 0.00 63 1017.2
20260903143525 32 268 0.0 3.2 0.00 0.00 0.00 64 1017.2
20260903143432 32 268 0.0 4.8 0.00 0.00 0.00 64 1017.1
20260903143320 32 268 0.0 4.8 0.00 0.00 0.00 64 1017.2
20260903143254 32 268 0.0 4.8 0.00 0.00 0.00 64 1017.2
20260903143026 32 268 1.6 4.8 0.00 0.00 0.00 65 1017.2
20260903142953 32 268 1.6 4.8 0.00 0.00 0.00 65 1017.2
20260903142818 32 254 1.6 4.8 0.00 0.00 0.00 67 1017.2
20260903142726 32 255 1.6 4.8 0.00 0.00 0.00 67 1017.2
20260903142633 32 255 3.2 4.8 0.00 0.00 0.00 66 1017.2
20260903142523 32 260 3.2 4.8 0.00 0.00 0.00 66 1017.2
20260903142429 32 271 3.2 4.8 0.00 0.00 0.00 66 1017.2
20260903142336 32 254 3.2 4.8 0.00 0.00 0.00 67 1017.2
20260903142222 32 263 1.6 4.8 0.00 0.00 0.00 67 1017.3
20260903142149 32 254 1.6 4.8 0.00 0.00 0.00 67 1017.2
20260903142036 32 254 0.0 3.2 0.00 0.00 0.00 67 1017.2
20260903141928 32 232 0.0 3.2 0.00 0.00 0.00 68 1017.2
20260903141836 32 232 0.0 3.2 0.00 0.00 0.00 67 1017.2
20260903141807 32 232 0.0 3.2 0.00 0.00 0.00 68 1017.2
20260903141520 31 232 0.0 4.8 0.00 0.00 0.00 69 1017.2
20260903141425 31 232 0.0 4.8 0.00 0.00 0.00 69 1017.2
20260903141317 31 232 1.6 4.8 0.00 0.00 0.00 71 1017.2
20260903141244 31 232 0.0 4.8 0.00 0.00 0.00 70 1017.2
20260903141150 31 259 0.0 4.8 0.00 0.00 0.00 69 1017.3
20260903141035 31 265 0.0 4.8 0.00 0.00 0.00 70 1017.4
20260903140922 31 265 1.6 4.8 0.00 0.00 0.00 71 1017.3
20260903140829 31 265 1.6 4.8 0.00 0.00 0.00 70 1017.2
20260903140720 31 273 1.6 4.8 0.00 0.00 0.00 71 1017.3
20260903140627 31 292 3.2 4.8 0.00 0.00 0.00 72 1017.3
20260903140533 31 268 3.2 4.8 0.00 0.00 0.00 71 1017.3
20260903140419 31 262 3.2 4.8 0.00 0.00 0.00 71 1017.4
20260903140326 31 264 1.6 4.8 0.00 0.00 0.00 71 1017.4
20260903140301 31 250 1.6 6.4 0.00 0.00 0.00 71 1017.4
20260903140034 31 268 1.6 6.4 0.00 0.00 0.00 71 1017.3
20260903135920 31 292 3.2 6.4 0.00 0.00 0.00 72 1017.5
20260903135827 31 287 3.2 6.4 0.00 0.00 0.00 71 1017.4
20260903135734 31 304 3.2 6.4 0.00 0.00 0.00 72 1017.4
20260903135625 30 290 3.2 6.4 0.00 0.00 0.00 72 1017.4
20260903135534 30 319 3.2 6.4 0.00 0.00 0.00 72 1017.4
20260903135419 30 275 1.6 6.4 0.00 0.00 0.00 73 1017.4
20260903135328 30 252 1.6 6.4 0.00 0.00 0.00 73 1017.3
20260903135235 30 199 3.2 6.4 0.00 0.00 0.00 72 1017.4
20260903135120 30 211 3.2 6.4 0.00 0.00 0.00 73 1017.4
20260903135047 30 246 1.6 4.8 0.00 0.00 0.00 74 1017.3
20260903134918 30 278 0.0 3.2 0.00 0.00 0.00 73 1017.4
20260903134825 30 278 1.6 4.8 0.00 0.00 0.00 73 1017.4
20260903134757 30 278 1.6 4.8 0.00 0.00 0.00 74 1017.4
20260903134529 30 275 1.6 4.8 0.00 0.00 0.00 74 1017.3
20260903134420 30 275 1.6 4.8 0.00 0.00 0.00 74 1017.3
20260903134328 30 306 1.6 4.8 0.00 0.00 0.00 74 1017.3
20260903134235 30 306 3.2 4.8 0.00 0.00 0.00 74 1017.4
20260903134141 30 301 3.2 4.8 0.00 0.00 0.00 74 1017.4
20260903134028 30 301 3.2 4.8 0.00 0.00 0.00 74 1017.3
20260903133956 30 295 3.2 4.8 0.00 0.00 0.00 74 1017.3
20260903133825 30 290 1.6 4.8 0.00 0.00 0.00 74 1017.4
20260903133731 30 296 1.6 4.8 0.00 0.00 0.00 74 1017.3
20260903133617 30 277 3.2 4.8 0.00 0.00 0.00 74 1017.3
20260903133545 30 305 1.6 4.8 0.00 0.00 0.00 74 1017.3
20260903133430 30 290 1.6 4.8 0.00 0.00 0.00 75 1017.3
20260903133319 30 273 1.6 4.8 0.00 0.00 0.00 75 1017.3
20260903133253 30 296 1.6 4.8 0.00 0.00 0.00 75 1017.3
20260903133027 29 268 3.2 4.8 0.00 0.00 0.00 75 1017.3
20260903132935 29 279 1.6 4.8 0.00 0.00 0.00 75 1017.3
20260903132842 29 296 1.6 4.8 0.00 0.00 0.00 76 1017.3
20260903132726 29 296 1.6 4.8 0.00 0.00 0.00 76 1017.3
20260903132617 29 273 3.2 4.8 0.00 0.00 0.00 76 1017.3
20260903132524 29 294 3.2 4.8 0.00 0.00 0.00 76 1017.2
20260903132431 29 296 3.2 4.8 0.00 0.00 0.00 76 1017.3
20260903132339 29 302 1.6 3.2 0.00 0.00 0.00 77 1017.2
20260903132223 29 286 1.6 3.2 0.00 0.00 0.00 78 1017.3
20260903132130 29 272 1.6 3.2 0.00 0.00 0.00 78 1017.3
20260903132022 28 300 1.6 3.2 0.00 0.00 0.00 78 1017.3
20260903131948 28 328 1.6 3.2 0.00 0.00 0.00 78 1017.3
20260903131836 28 338 1.6 3.2 0.00 0.00 0.00 78 1017.3
20260903131806 28 338 0.0 3.2 0.00 0.00 0.00 78 1017.3
20260903131519 28 338 0.0 3.2 0.00 0.00 0.00 79 1017.4
20260903131430 28 338 0.0 3.2 0.00 0.00 0.00 79 1017.4
20260903131317 28 338 0.0 3.2 0.00 0.00 0.00 79 1017.3
20260903131242 28 338 0.0 3.2 0.00 0.00 0.00 78 1017.3
20260903131128 28 338 0.0 3.2 0.00 0.00 0.00 78 1017.3
20260903131016 28 338 0.0 3.2 0.00 0.00 0.00 79 1017.4
20260903130923 27 338 1.6 3.2 0.00 0.00 0.00 80 1017.3
20260903130834 27 338 1.6 3.2 0.00 0.00 0.00 80 1017.4
20260903130720 27 338 1.6 3.2 0.00 0.00 0.00 81 1017.4
20260903130648 27 338 1.6 3.2 0.00 0.00 0.00 81 1017.3
20260903130535 27 338 1.6 3.2 0.00 0.00 0.00 81 1017.3
20260903130421 27 338 1.6 3.2 0.00 0.00 0.00 81 1017.3
20260903130303 27 338 1.6 3.2 0.00 0.00 0.00 82 1017.3
20260903130036 27 360 0.0 3.2 0.00 0.00 0.00 82 1017.3
20260903125922 27 360 0.0 0.0 0.00 0.00 0.00 83 1017.4
20260903125829 27 360 0.0 0.0 0.00 0.00 0.00 83 1017.4
20260903125755 27 360 0.0 0.0 0.00 0.00 0.00 83 1017.4
20260903125626 26 360 0.0 1.6 0.00 0.00 0.00 84 1017.4
20260903125534 26 360 0.0 1.6 0.00 0.00 0.00 84 1017.4
20260903125422 26 360 0.0 1.6 0.00 0.00 0.00 84 1017.4
20260903125329 26 360 0.0 3.2 0.00 0.00 0.00 84 1017.4
20260903125235 26 360 0.0 3.2 0.00 0.00 0.00 85 1017.4
20260903125122 26 360 0.0 3.2 0.00 0.00 0.00 84 1017.4
20260903125034 26 360 0.0 3.2 0.00 0.00 0.00 85 1017.4
20260903124942 26 360 0.0 4.8 0.00 0.00 0.00 85 1017.4
20260903124827 26 360 0.0 4.8 0.00 0.00 0.00 85 1017.4
20260903124759 26 360 0.0 4.8 0.00 0.00 0.00 85 1017.4
20260903124552 26 360 1.6 4.8 0.00 0.00 0.00 85 1017.3
20260903124442 26 360 1.6 6.4 0.00 0.00 0.00 85 1017.4
20260903124327 26 360 1.6 6.4 0.00 0.00 0.00 86 1017.4
20260903124235 26 360 1.6 6.4 0.00 0.00 0.00 86 1017.2
20260903124122 26 360 3.2 6.4 0.00 0.00 0.00 86 1017.3
20260903124028 25 360 3.2 6.4 0.00 0.00 0.00 87 1017.4
20260903123935 25 360 3.2 6.4 0.00 0.00 0.00 87 1017.4
20260903123827 25 360 3.2 6.4 0.00 0.00 0.00 87 1017.3
20260903123733 25 360 3.2 6.4 0.00 0.00 0.00 87 1017.3
20260903123640 25 5 3.2 6.4 0.00 0.00 0.00 87 1017.3
20260903123546 25 10 3.2 4.8 0.00 0.00 0.00 87 1017.4
20260903123433 25 48 3.2 4.8 0.00 0.00 0.00 87 1017.4
20260903123320 25 34 1.6 4.8 0.00 0.00 0.00 87 1017.3
20260903123255 25 34 1.6 4.8 0.00 0.00 0.00 88 1017.3
20260903123027 25 41 3.2 4.8 0.00 0.00 0.00 88 1017.3
20260903122935 25 41 3.2 4.8 0.00 0.00 0.00 88 1017.3
20260903122842 25 360 1.6 4.8 0.00 0.00 0.00 88 1017.2
20260903122727 25 360 3.2 4.8 0.00 0.00 0.00 88 1017.3
20260903122618 25 360 3.2 4.8 0.00 0.00 0.00 88 1017.2
20260903122526 25 360 3.2 4.8 0.00 0.00 0.00 89 1017.2
20260903122432 25 360 3.2 4.8 0.00 0.00 0.00 89 1017.2
20260903122318 25 360 3.2 6.4 0.00 0.00 0.00 89 1017.2
20260903122225 25 360 3.2 6.4 0.00 0.00 0.00 89 1017.2
20260903122118 24 360 3.2 6.4 0.00 0.00 0.00 89 1017.1
20260903122026 24 360 3.2 6.4 0.00 0.00 0.00 89 1017.1
20260903121932 24 360 3.2 6.4 0.00 0.00 0.00 89 1017.1
20260903121820 24 360 3.2 6.4 0.00 0.00 0.00 90 1017.1
20260903121751 24 360 3.2 8.0 0.00 0.00 0.00 90 1017.1
20260903121530 24 5 4.8 8.0 0.00 0.00 0.00 90 1017.1
20260903121436 24 342 4.8 8.0 0.00 0.00 0.00 90 1017.1
20260903121322 24 339 4.8 8.0 0.00 0.00 0.00 90 1017.1
20260903121228 24 333 4.8 8.0 0.00 0.00 0.00 90 1017.0
20260903121136 24 331 4.8 8.0 0.00 0.00 0.00 90 1017.1
20260903121028 24 347 4.8 8.0 0.00 0.00 0.00 90 1017.0
20260903120935 24 342 4.8 8.0 0.00 0.00 0.00 90 1017.0
20260903120823 24 333 4.8 8.0 0.00 0.00 0.00 90 1017.0
20260903120731 24 346 6.4 8.0 0.00 0.00 0.00 90 1017.1
20260903120619 23 333 4.8 6.4 0.00 0.00 0.00 90 1017.1
20260903120526 23 344 4.8 6.4 0.00 0.00 0.00 90 1017.0
20260903120438 23 344 4.8 6.4 0.00 0.00 0.00 90 1017.1
20260903120325 23 355 4.8 6.4 0.00 0.00 0.00 91 1017.1
20260903120256 23 331 4.8 8.0 0.00 0.00 0.00 91 1017.1
20260903120030 23 360 4.8 8.0 0.00 0.00 0.00 91 1017.0
20260903115921 23 5 4.8 8.0 0.00 0.00 0.00 91 1017.1
20260903115848 23 355 4.8 8.0 0.00 0.00 0.00 91 1017.0
20260903115734 23 348 4.8 8.0 0.00 0.00 0.00 91 1017.0
20260903115620 23 335 4.8 8.0 0.00 0.00 0.00 91 1017.0
20260903115527 23 333 4.8 8.0 0.00 0.00 0.00 91 1017.1
20260903115435 23 341 4.8 8.0 0.00 0.00 0.00 91 1017.0
20260903115326 23 348 4.8 8.0 0.00 0.00 0.00 91 1017.1
20260903115233 23 344 4.8 8.0 0.00 0.00 0.00 91 1017.0
20260903115121 23 345 3.2 6.4 0.00 0.00 0.00 91 1017.0
20260903115028 23 355 4.8 6.4 0.00 0.00 0.00 90 1017.0
20260903114936 23 348 4.8 6.4 0.00 0.00 0.00 90 1017.1
20260903114822 23 338 4.8 4.8 0.00 0.00 0.00 90 1017.0
20260903114756 23 339 4.8 4.8 0.00 0.00 0.00 90 1017.0
20260903114529 23 340 3.2 4.8 0.00 0.00 0.00 90 1017.1
20260903114456 23 329 3.2 4.8 0.00 0.00 0.00 89 1017.1
20260903114322 23 320 3.2 4.8 0.00 0.00 0.00 89 1017.2
20260903114249 23 350 3.2 4.8 0.00 0.00 0.00 89 1017.0
20260903114118 23 350 3.2 4.8 0.00 0.00 0.00 89 1017.1
20260903114026 23 350 1.6 4.8 0.00 0.00 0.00 89 1017.1
20260903113952 23 350 1.6 4.8 0.00 0.00 0.00 89 1017.0
20260903113819 23 350 1.6 4.8 0.00 0.00 0.00 89 1017.0
20260903113727 23 350 1.6 4.8 0.00 0.00 0.00 89 1017.1
20260903113653 23 350 1.6 4.8 0.00 0.00 0.00 90 1017.0
20260903113523 23 350 1.6 4.8 0.00 0.00 0.00 90 1016.9
20260903113430 23 350 3.2 4.8 0.00 0.00 0.00 90 1017.0
20260903113359 23 350 3.2 4.8 0.00 0.00 0.00 90 1017.0
20260903113309 23 350 3.2 4.8 0.00 0.00 0.00 90 1017.0
20260903113021 23 350 3.2 4.8 0.00 0.00 0.00 91 1017.0
20260903112932 23 350 3.2 4.8 0.00 0.00 0.00 91 1016.9
20260903112818 23 350 1.6 4.8 0.00 0.00 0.00 91 1016.9
20260903112725 23 350 0.0 1.6 0.00 0.00 0.00 91 1016.8
20260903112633 23 350 0.0 1.6 0.00 0.00 0.00 91 1016.8
20260903112519 23 350 0.0 1.6 0.00 0.00 0.00 91 1016.8
20260903112424 23 350 0.0 1.6 0.00 0.00 0.00 91 1016.8
20260903112335 23 350 0.0 1.6 0.00 0.00 0.00 91 1016.8
20260903112222 23 350 1.6 1.6 0.00 0.00 0.00 91 1016.8
20260903112129 23 350 0.0 1.6 0.00 0.00 0.00 91 1016.8
20260903112036 23 350 0.0 1.6 0.00 0.00 0.00 91 1016.8
20260903111924 23 350 0.0 1.6 0.00 0.00 0.00 91 1016.8
20260903111805 23 350 0.0 1.6 0.00 0.00 0.00 91 1016.8
20260903111518 23 350 0.0 3.2 0.00 0.00 0.00 91 1016.8
20260903111424 23 350 0.0 3.2 0.00 0.00 0.00 91 1016.8
20260903111350 23 350 0.0 3.2 0.00 0.00 0.00 91 1016.8
20260903111220 23 350 0.0 3.2 0.00 0.00 0.00 91 1016.8
20260903111127 23 350 1.6 3.2 0.00 0.00 0.00 91 1016.8
20260903111053 23 350 1.6 3.2 0.00 0.00 0.00 91 1016.7
20260903110919 23 350 1.6 3.2 0.00 0.00 0.00 91 1016.8
20260903110826 23 350 1.6 3.2 0.00 0.00 0.00 91 1016.7
20260903110732 23 350 1.6 3.2 0.00 0.00 0.00 91 1016.7
20260903110624 23 350 1.6 4.8 0.00 0.00 0.00 90 1016.7
20260903110530 23 350 1.6 4.8 0.00 0.00 0.00 90 1016.7
20260903110418 23 350 1.6 4.8 0.00 0.00 0.00 90 1016.7
20260903110324 23 350 1.6 4.8 0.00 0.00 0.00 90 1016.6
20260903110258 23 350 3.2 4.8 0.00 0.00 0.00 89 1016.6
20260903110031 23 350 3.2 4.8 0.00 0.00 0.00 89 1016.6
20260903105917 23 350 3.2 4.8 0.00 0.00 0.00 89 1016.5
20260903105825 23 350 3.2 4.8 0.00 0.00 0.00 89 1016.6
20260903105731 23 350 3.2 4.8 0.00 0.00 0.00 89 1016.6
20260903105618 23 350 3.2 4.8 0.00 0.00 0.00 89 1016.6
20260903105528 23 350 3.2 4.8 0.00 0.00 0.00 89 1016.5
20260903105436 23 350 3.2 4.8 0.00 0.00 0.00 89 1016.5
20260903105322 23 350 3.2 4.8 0.00 0.00 0.00 89 1016.5
20260903105229 23 350 3.2 4.8 0.00 0.00 0.00 89 1016.6
20260903105136 23 350 3.2 4.8 0.00 0.00 0.00 89 1016.5
20260903105028 23 350 3.2 4.8 0.00 0.00 0.00 89 1016.6
20260903104936 23 350 3.2 4.8 0.00 0.00 0.00 89 1016.6
20260903104843 23 350 3.2 3.2 0.00 0.00 0.00 89 1016.5
20260903104810 23 350 1.6 3.2 0.00 0.00 0.00 89 1016.5
20260903104523 23 350 3.2 3.2 0.00 0.00 0.00 88 1016.5
20260903104435 23 350 3.2 3.2 0.00 0.00 0.00 89 1016.5
20260903104321 23 350 1.6 3.2 0.00 0.00 0.00 89 1016.5
20260903104228 23 350 1.6 3.2 0.00 0.00 0.00 89 1016.5
20260903104135 23 350 1.6 3.2 0.00 0.00 0.00 89 1016.5
20260903104021 23 350 3.2 3.2 0.00 0.00 0.00 89 1016.6
20260903103929 23 350 3.2 3.2 0.00 0.00 0.00 89 1016.5
20260903103840 23 350 1.6 3.2 0.00 0.00 0.00 89 1016.5
20260903103726 23 350 1.6 3.2 0.00 0.00 0.00 89 1016.5
20260903103632 23 350 1.6 3.2 0.00 0.00 0.00 90 1016.5
20260903103520 23 350 1.6 3.2 0.00 0.00 0.00 90 1016.5
20260903103449 23 350 1.6 3.2 0.00 0.00 0.00 90 1016.4
20260903103308 23 350 1.6 3.2 0.00 0.00 0.00 90 1016.5
20260903103021 23 350 1.6 3.2 0.00 0.00 0.00 89 1016.5
20260903102949 23 350 1.6 3.2 0.00 0.00 0.00 89 1016.4
20260903102834 23 350 1.6 3.2 0.00 0.00 0.00 89 1016.5
20260903102720 23 350 1.6 3.2 0.00 0.00 0.00 89 1016.4
20260903102631 23 350 1.6 3.2 0.00 0.00 0.00 89 1016.5
20260903102518 23 350 0.0 3.2 0.00 0.00 0.00 90 1016.5
20260903102426 23 350 0.0 1.6 0.00 0.00 0.00 90 1016.4
20260903102335 23 350 0.0 1.6 0.00 0.00 0.00 90 1016.4
20260903102220 23 350 0.0 1.6 0.00 0.00 0.00 90 1016.4
20260903102131 23 350 0.0 1.6 0.00 0.00 0.00 90 1016.5
20260903102017 23 350 0.0 1.6 0.00 0.00 0.00 90 1016.4
20260903101925 23 350 0.0 1.6 0.00 0.00 0.00 90 1016.4
20260903101824 23 350 0.0 1.6 0.00 0.00 0.00 90 1016.4
20260903101519 23 350 0.0 0.0 0.00 0.00 0.00 90 1016.3
20260903101427 23 350 0.0 0.0 0.00 0.00 0.00 90 1016.4
20260903101354 23 350 0.0 0.0 0.00 0.00 0.00 90 1016.3
20260903101220 23 350 0.0 0.0 0.00 0.00 0.00 90 1016.4
20260903101127 23 350 0.0 0.0 0.00 0.00 0.00 90 1016.4
20260903101035 23 350 0.0 0.0 0.00 0.00 0.00 90 1016.3
20260903100925 23 350 0.0 0.0 0.00 0.00 0.00 90 1016.3
20260903100853 23 350 0.0 0.0 0.00 0.00 0.00 90 1016.3
20260903100719 23 350 0.0 0.0 0.00 0.00 0.00 90 1016.4
20260903100626 23 350 0.0 0.0 0.00 0.00 0.00 90 1016.3
20260903100534 23 350 0.0 0.0 0.00 0.00 0.00 90 1016.3
20260903100420 23 350 0.0 0.0 0.00 0.00 0.00 90 1016.3
20260903100331 23 350 0.0 0.0 0.00 0.00 0.00 90 1016.4
20260903100301 23 350 0.0 0.0 0.00 0.00 0.00 90 1016.4
20260903100034 23 350 0.0 0.0 0.00 0.00 0.00 90 1016.2
20260903095942 23 350 0.0 0.0 0.00 0.00 0.00 90 1016.3
20260903095849 23 350 0.0 0.0 0.00 0.00 0.00 90 1016.2
20260903095718 23 350 0.0 0.0 0.00 0.00 0.00 90 1016.2
20260903095626 23 350 0.0 0.0 0.00 0.00 0.00 90 1016.3
20260903095532 23 350 0.0 0.0 0.00 0.00 0.00 90 1016.2
20260903095439 23 350 0.0 0.0 0.00 0.00 0.00 90 1016.3
20260903095326 23 350 0.0 0.0 0.00 0.00 0.00 90 1016.2
20260903095232 23 350 0.0 0.0 0.00 0.00 0.00 90 1016.2
20260903095123 23 350 0.0 0.0 0.00 0.00 0.00 90 1016.2
20260903095031 23 350 0.0 0.0 0.00 0.00 0.00 90 1016.2
20260903094917 23 350 0.0 0.0 0.00 0.00 0.00 90 1016.3
20260903094844 23 350 0.0 0.0 0.00 0.00 0.00 90 1016.2
20260903094753 23 350 0.0 0.0 0.00 0.00 0.00 90 1016.2
20260903094551 23 350 0.0 0.0 0.00 0.00 0.00 90 1016.2
20260903094456 23 350 0.0 0.0 0.00 0.00 0.00 90 1016.2
20260903094321 23 350 0.0 0.0 0.00 0.00 0.00 90 1016.2
20260903094228 23 350 0.0 0.0 0.00 0.00 0.00 90 1016.2
20260903094134 23 350 0.0 0.0 0.00 0.00 0.00 90 1016.3
20260903094022 23 350 0.0 0.0 0.00 0.00 0.00 90 1016.2
20260903093951 23 350 0.0 0.0 0.00 0.00 0.00 90 1016.2
20260903093821 23 350 0.0 0.0 0.00 0.00 0.00 90 1016.2
20260903093727 23 350 0.0 0.0 0.00 0.00 0.00 90 1016.3
20260903093634 23 350 0.0 0.0 0.00 0.00 0.00 90 1016.2
20260903093521 23 350 0.0 0.0 0.00 0.00 0.00 90 1016.2
20260903093429 23 350 0.0 1.6 0.00 0.00 0.00 90 1016.2
20260903093321 23 350 0.0 1.6 0.00 0.00 0.00 90 1016.3
20260903093252 23 350 0.0 1.6 0.00 0.00 0.00 90 1016.3
20260903093025 23 350 0.0 1.6 0.00 0.00 0.00 90 1016.2
20260903092933 23 350 0.0 1.6 0.00 0.00 0.00 90 1016.2
20260903092823 23 350 0.0 1.6 0.00 0.00 0.00 90 1016.2
20260903092732 23 350 0.0 1.6 0.00 0.00 0.00 90 1016.2
20260903092618 23 350 0.0 1.6 0.00 0.00 0.00 90 1016.2
20260903092523 23 350 0.0 1.6 0.00 0.00 0.00 90 1016.2
20260903092431 23 350 0.0 3.2 0.00 0.00 0.00 90 1016.2
20260903092317 23 350 1.6 3.2 0.00 0.00 0.00 89 1016.2
20260903092229 23 350 1.6 3.2 0.00 0.00 0.00 89 1016.2
20260903092136 23 350 1.6 3.2 0.00 0.00 0.00 89 1016.1
20260903092024 23 350 1.6 3.2 0.00 0.00 0.00 89 1016.2
20260903091930 23 350 1.6 3.2 0.00 0.00 0.00 89 1016.2
20260903091817 23 350 1.6 3.2 0.00 0.00 0.00 89 1016.1
20260903091753 23 350 1.6 3.2 0.00 0.00 0.00 89 1016.1
20260903091525 23 350 1.6 3.2 0.00 0.00 0.00 89 1016.2
20260903091432 23 350 1.6 3.2 0.00 0.00 0.00 89 1016.2
20260903091318 23 350 1.6 3.2 0.00 0.00 0.00 89 1016.1
20260903091224 23 350 1.6 3.2 0.00 0.00 0.00 88 1016.2
20260903091136 23 350 1.6 3.2 0.00 0.00 0.00 89 1016.1
20260903091023 23 350 1.6 3.2 0.00 0.00 0.00 89 1016.2
20260903090931 23 350 1.6 3.2 0.00 0.00 0.00 89 1016.1
20260903090839 24 350 1.6 3.2 0.00 0.00 0.00 89 1016.1
20260903090724 23 350 1.6 3.2 0.00 0.00 0.00 89 1016.1
20260903090631 23 350 1.6 3.2 0.00 0.00 0.00 89 1016.1
20260903090522 24 350 1.6 3.2 0.00 0.00 0.00 88 1016.3
20260903090451 24 350 1.6 4.8 0.00 0.00 0.00 88 1016.2
20260903090308 24 350 1.6 4.8 0.00 0.00 0.00 88 1016.1
20260903090024 24 350 3.2 4.8 0.00 0.00 0.00 88 1016.2
20260903085930 24 350 3.2 4.8 0.00 0.00 0.00 88 1016.2
20260903085817 24 350 1.6 4.8 0.00 0.00 0.00 88 1016.1
20260903085724 24 350 1.6 4.8 0.00 0.00 0.00 88 1016.1
20260903085631 24 350 3.2 4.8 0.00 0.00 0.00 89 1016.2
20260903085538 24 350 3.2 4.8 0.00 0.00 0.00 88 1016.1
20260903085428 24 350 3.2 4.8 0.00 0.00 0.00 88 1016.2
20260903085356 24 350 1.6 4.8 0.00 0.00 0.00 88 1016.2
20260903085223 24 350 3.2 4.8 0.00 0.00 0.00 89 1016.2
20260903085130 24 350 3.2 4.8 0.00 0.00 0.00 89 1016.0
20260903085057 24 350 3.2 4.8 0.00 0.00 0.00 89 1016.1
20260903084922 24 350 3.2 4.8 0.00 0.00 0.00 89 1016.2
20260903084850 24 350 3.2 4.8 0.00 0.00 0.00 89 1016.1
20260903084802 24 350 3.2 4.8 0.00 0.00 0.00 89 1016.1
20260903084536 24 350 3.2 4.8 0.00 0.00 0.00 88 1016.1
20260903084423 24 350 1.6 3.2 0.00 0.00 0.00 88 1016.2
20260903084328 24 350 1.6 3.2 0.00 0.00 0.00 89 1016.1
20260903084219 24 350 1.6 3.2 0.00 0.00 0.00 89 1016.1
20260903084146 24 350 1.6 3.2 0.00 0.00 0.00 89 1016.1
20260903084033 24 350 1.6 3.2 0.00 0.00 0.00 89 1016.1
20260903083921 24 350 3.2 3.2 0.00 0.00 0.00 89 1016.1
20260903083826 24 350 3.2 3.2 0.00 0.00 0.00 89 1016.1
20260903083753 24 350 3.2 3.2 0.00 0.00 0.00 89 1016.0
20260903083639 24 350 1.6 3.2 0.00 0.00 0.00 88 1016.2
20260903083546 24 350 1.6 3.2 0.00 0.00 0.00 88 1016.1
20260903083436 24 350 3.2 3.2 0.00 0.00 0.00 88 1016.1
20260903083323 24 350 3.2 3.2 0.00 0.00 0.00 88 1016.1
20260903083254 24 350 3.2 3.2 0.00 0.00 0.00 86 1016.1
20260903083027 24 350 3.2 3.2 0.00 0.00 0.00 87 1016.1
20260903082917 24 350 3.2 3.2 0.00 0.00 0.00 86 1016.1
20260903082822 24 350 3.2 3.2 0.00 0.00 0.00 87 1016.0
20260903082750 24 350 3.2 3.2 0.00 0.00 0.00 87 1016.1
20260903082655 24 350 1.6 3.2 0.00 0.00 0.00 87 1016.1
20260903082519 24 350 0.0 3.2 0.00 0.00 0.00 87 1016.1
20260903082426 24 350 0.0 4.8 0.00 0.00 0.00 88 1016.1
20260903082318 24 350 1.6 4.8 0.00 0.00 0.00 87 1016.1
20260903082224 24 350 1.6 4.8 0.00 0.00 0.00 87 1016.2
20260903082130 24 350 1.6 4.8 0.00 0.00 0.00 87 1016.0
20260903082057 24 350 1.6 4.8 0.00 0.00 0.00 87 1016.1
20260903081925 24 350 3.2 4.8 0.00 0.00 0.00 87 1016.1
20260903081807 24 350 3.2 4.8 0.00 0.00 0.00 86 1016.1
20260903081519 24 350 3.2 4.8 0.00 0.00 0.00 86 1016.1
20260903081425 24 350 3.2 4.8 0.00 0.00 0.00 86 1016.0
20260903081334 24 350 3.2 4.8 0.00 0.00 0.00 87 1016.0
20260903081222 24 350 3.2 4.8 0.00 0.00 0.00 86 1016.0
20260903081133 24 350 3.2 4.8 0.00 0.00 0.00 86 1016.0
20260903081019 24 350 3.2 4.8 0.00 0.00 0.00 86 1016.1
20260903080945 24 350 3.2 4.8 0.00 0.00 0.00 86 1016.1
20260903080831 24 350 3.2 4.8 0.00 0.00 0.00 86 1016.0
20260903080718 24 350 3.2 4.8 0.00 0.00 0.00 87 1016.1
20260903080646 24 350 3.2 4.8 0.00 0.00 0.00 87 1016.1
20260903080517 24 350 3.2 4.8 0.00 0.00 0.00 87 1016.0
20260903080423 24 350 3.2 4.8 0.00 0.00 0.00 87 1016.1
20260903080301 24 350 1.6 3.2 0.00 0.00 0.00 87 1016.0
20260903080019 25 350 3.2 3.2 0.00 0.00 0.00 87 1016.1
20260903075927 25 350 1.6 3.2 0.00 0.00 0.00 87 1016.0
20260903075834 25 350 3.2 3.2 0.00 0.00 0.00 87 1016.1
20260903075721 25 350 1.6 3.2 0.00 0.00 0.00 87 1016.0
20260903075628 25 350 1.6 3.2 0.00 0.00 0.00 88 1016.1
20260903075535 25 350 1.6 3.2 0.00 0.00 0.00 88 1016.1
20260903075427 25 350 1.6 3.2 0.00 0.00 0.00 88 1016.1
20260903075353 25 350 1.6 3.2 0.00 0.00 0.00 88 1016.1
20260903075218 25 350 0.0 1.6 0.00 0.00 0.00 88 1016.1
20260903075127 25 350 0.0 1.6 0.00 0.00 0.00 88 1016.1
20260903075034 25 350 0.0 1.6 0.00 0.00 0.00 88 1016.1
20260903074942 25 350 0.0 3.2 0.00 0.00 0.00 88 1016.2
20260903074802 25 350 0.0 3.2 0.00 0.00 0.00 88 1016.2
20260903074535 25 350 0.0 3.2 0.00 0.00 0.00 88 1016.1
20260903074423 25 350 1.6 3.2 0.00 0.00 0.00 88 1016.2
20260903074330 25 350 1.6 4.8 0.00 0.00 0.00 88 1016.1
20260903074220 25 350 1.6 4.8 0.00 0.00 0.00 87 1016.2
20260903074127 25 350 1.6 4.8 0.00 0.00 0.00 87 1016.1
20260903074036 25 350 3.2 4.8 0.00 0.00 0.00 87 1016.1
20260903073923 25 350 3.2 4.8 0.00 0.00 0.00 86 1016.1
20260903073830 25 350 3.2 4.8 0.00 0.00 0.00 86 1016.1
20260903073719 25 350 1.6 4.8 0.00 0.00 0.00 86 1016.2
20260903073623 25 350 1.6 4.8 0.00 0.00 0.00 85 1016.1
20260903073529 25 350 3.2 4.8 0.00 0.00 0.00 85 1016.1
20260903073418 25 350 3.2 4.8 0.00 0.00 0.00 85 1016.2
20260903073324 25 350 3.2 4.8 0.00 0.00 0.00 85 1016.1
20260903073300 25 350 3.2 4.8 0.00 0.00 0.00 85 1016.1
20260903073033 25 350 3.2 4.8 0.00 0.00 0.00 85 1016.1
20260903072938 25 350 3.2 4.8 0.00 0.00 0.00 85 1016.1
20260903072824 25 350 3.2 4.8 0.00 0.00 0.00 85 1016.1
20260903072731 25 350 3.2 3.2 0.00 0.00 0.00 86 1016.1
20260903072657 25 350 3.2 3.2 0.00 0.00 0.00 86 1016.0
20260903072521 25 350 3.2 3.2 0.00 0.00 0.00 86 1016.1
20260903072451 25 350 3.2 3.2 0.00 0.00 0.00 86 1016.1
20260903072318 25 350 3.2 3.2 0.00 0.00 0.00 87 1016.0
20260903072245 25 350 1.6 3.2 0.00 0.00 0.00 87 1016.1
20260903072130 25 350 1.6 3.2 0.00 0.00 0.00 88 1016.1
20260903072017 25 350 1.6 3.2 0.00 0.00 0.00 87 1016.2
20260903071924 25 350 1.6 3.2 0.00 0.00 0.00 87 1016.1
20260903071835 25 350 1.6 3.2 0.00 0.00 0.00 87 1016.1
20260903071807 25 350 1.6 3.2 0.00 0.00 0.00 87 1016.1
20260903071519 25 350 1.6 3.2 0.00 0.00 0.00 87 1016.1
20260903071446 25 350 1.6 1.6 0.00 0.00 0.00 87 1016.2
20260903071332 25 350 1.6 1.6 0.00 0.00 0.00 86 1016.1
20260903071224 25 350 1.6 1.6 0.00 0.00 0.00 86 1016.1
20260903071151 25 350 1.6 1.6 0.00 0.00 0.00 86 1016.1
20260903071017 25 350 1.6 1.6 0.00 0.00 0.00 86 1016.2
20260903070923 25 350 1.6 1.6 0.00 0.00 0.00 86 1016.1
20260903070831 25 350 1.6 1.6 0.00 0.00 0.00 87 1016.1
20260903070757 25 350 1.6 1.6 0.00 0.00 0.00 87 1016.1
20260903070622 25 350 0.0 1.6 0.00 0.00 0.00 87 1016.1
20260903070532 25 350 0.0 1.6 0.00 0.00 0.00 87 1016.1
20260903070420 25 350 0.0 1.6 0.00 0.00 0.00 88 1016.1
20260903070326 25 350 0.0 1.6 0.00 0.00 0.00 88 1016.1
20260903070256 25 350 0.0 1.6 0.00 0.00 0.00 87 1016.1
20260903070032 25 350 0.0 1.6 0.00 0.00 0.00 88 1016.1
20260903065918 25 350 0.0 1.6 0.00 0.00 0.00 87 1016.1
20260903065826 25 350 0.0 1.6 0.00 0.00 0.00 87 1016.1
20260903065733 25 350 0.0 1.6 0.00 0.00 0.00 87 1016.1
20260903065638 25 350 1.6 1.6 0.00 0.00 0.00 87 1016.1
20260903065524 25 350 0.0 1.6 0.00 0.00 0.00 87 1016.1
20260903065435 25 350 0.0 1.6 0.00 0.00 0.00 87 1016.1
20260903065323 25 350 0.0 1.6 0.00 0.00 0.00 87 1016.0
20260903065228 25 350 0.0 1.6 0.00 0.00 0.00 87 1016.0
20260903065135 25 350 0.0 1.6 0.00 0.00 0.00 87 1016.1
20260903065021 25 350 0.0 1.6 0.00 0.00 0.00 87 1016.1
20260903064929 25 350 0.0 1.6 0.00 0.00 0.00 87 1016.1
20260903064810 25 350 0.0 1.6 0.00 0.00 0.00 87 1016.1
20260903064522 25 350 1.6 1.6 0.00 0.00 0.00 86 1016.2
20260903064429 25 350 1.6 1.6 0.00 0.00 0.00 86 1016.2
20260903064319 25 350 1.6 1.6 0.00 0.00 0.00 86 1016.2
20260903064226 25 350 1.6 1.6 0.00 0.00 0.00 86 1016.1
20260903064133 25 350 1.6 1.6 0.00 0.00 0.00 86 1016.2
20260903064021 25 350 1.6 1.6 0.00 0.00 0.00 86 1016.2
20260903063927 25 350 0.0 1.6 0.00 0.00 0.00 86 1016.2
20260903063854 25 350 0.0 1.6 0.00 0.00 0.00 87 1016.2
20260903063725 25 350 0.0 1.6 0.00 0.00 0.00 86 1016.2
20260903063633 25 350 0.0 1.6 0.00 0.00 0.00 86 1016.2
20260903063540 25 350 1.6 1.6 0.00 0.00 0.00 86 1016.3
20260903063426 25 350 0.0 1.6 0.00 0.00 0.00 86 1016.3
20260903063307 25 350 0.0 1.6 0.00 0.00 0.00 86 1016.2
20260903063020 25 350 0.0 0.0 0.00 0.00 0.00 86 1016.3
20260903062947 25 350 0.0 0.0 0.00 0.00 0.00 85 1016.2
20260903062854 25 350 0.0 0.0 0.00 0.00 0.00 85 1016.2
20260903062719 25 350 0.0 0.0 0.00 0.00 0.00 85 1016.2
20260903062645 25 350 0.0 0.0 0.00 0.00 0.00 86 1016.3
20260903062532 25 350 0.0 0.0 0.00 0.00 0.00 86 1016.2
20260903062422 25 350 0.0 0.0 0.00 0.00 0.00 86 1016.3
20260903062351 25 350 0.0 0.0 0.00 0.00 0.00 86 1016.2
20260903062257 25 350 0.0 0.0 0.00 0.00 0.00 86 1016.3
20260903062143 25 350 0.0 0.0 0.00 0.00 0.00 86 1016.3
20260903062030 25 350 0.0 0.0 0.00 0.00 0.00 86 1016.3
20260903061938 25 350 0.0 0.0 0.00 0.00 0.00 86 1016.3
20260903061824 25 350 0.0 0.0 0.00 0.00 0.00 86 1016.3
20260903061759 25 350 0.0 0.0 0.00 0.00 0.00 86 1016.3
20260903061532 25 350 0.0 0.0 0.00 0.00 0.00 86 1016.4
20260903061418 25 350 0.0 0.0 0.00 0.00 0.00 86 1016.3
20260903061324 25 350 0.0 0.0 0.00 0.00 0.00 85 1016.4
20260903061230 25 350 0.0 0.0 0.00 0.00 0.00 85 1016.4
20260903061120 25 350 0.0 0.0 0.00 0.00 0.00 85 1016.5
20260903061025 25 350 0.0 0.0 0.00 0.00 0.00 85 1016.4
20260903060953 25 350 0.0 0.0 0.00 0.00 0.00 86 1016.4
20260903060819 25 350 0.0 0.0 0.00 0.00 0.00 86 1016.4
20260903060725 25 350 0.0 0.0 0.00 0.00 0.00 86 1016.4
20260903060631 25 350 0.0 0.0 0.00 0.00 0.00 86 1016.3
20260903060523 25 350 0.0 0.0 0.00 0.00 0.00 86 1016.4
20260903060430 25 350 0.0 0.0 0.00 0.00 0.00 86 1016.5
20260903060357 25 350 0.0 0.0 0.00 0.00 0.00 85 1016.5
20260903060328 25 350 0.0 1.6 0.00 0.00 0.00 85 1016.5
20260903060023 25 350 0.0 1.6 0.00 0.00 0.00 86 1016.4
20260903055930 25 350 0.0 1.6 0.00 0.00 0.00 85 1016.4
20260903055836 25 350 0.0 1.6 0.00 0.00 0.00 86 1016.4
20260903055722 25 350 0.0 3.2 0.00 0.00 0.00 85 1016.4
20260903055628 25 350 0.0 3.2 0.00 0.00 0.00 85 1016.4
20260903055535 25 350 0.0 3.2 0.00 0.00 0.00 85 1016.4
20260903055426 25 350 0.0 3.2 0.00 0.00 0.00 85 1016.5
20260903055332 25 350 1.6 3.2 0.00 0.00 0.00 85 1016.4
20260903055218 25 350 1.6 3.2 0.00 0.00 0.00 85 1016.5
20260903055124 25 350 1.6 3.2 0.00 0.00 0.00 84 1016.4
20260903055031 25 350 1.6 4.8 0.00 0.00 0.00 84 1016.4
20260903054920 25 350 1.6 4.8 0.00 0.00 0.00 84 1016.5
20260903054827 25 350 1.6 4.8 0.00 0.00 0.00 83 1016.4
20260903054758 25 350 1.6 4.8 0.00 0.00 0.00 83 1016.4
20260903054551 25 350 1.6 4.8 0.00 0.00 0.00 83 1016.3
20260903054417 25 350 1.6 4.8 0.00 0.00 0.00 83 1016.4
20260903054344 25 350 1.6 4.8 0.00 0.00 0.00 84 1016.4
20260903054234 25 350 3.2 4.8 0.00 0.00 0.00 84 1016.4
20260903054119 25 350 3.2 4.8 0.00 0.00 0.00 84 1016.4
20260903054026 25 350 1.6 4.8 0.00 0.00 0.00 84 1016.4
20260903053932 25 350 1.6 4.8 0.00 0.00 0.00 83 1016.3
20260903053819 26 350 3.2 4.8 0.00 0.00 0.00 84 1016.4
20260903053726 25 350 3.2 4.8 0.00 0.00 0.00 84 1016.4
20260903053618 26 350 3.2 4.8 0.00 0.00 0.00 83 1016.4
20260903053525 26 350 3.2 4.8 0.00 0.00 0.00 83 1016.4
20260903053433 26 350 3.2 4.8 0.00 0.00 0.00 84 1016.4
20260903053318 26 350 3.2 4.8 0.00 0.00 0.00 83 1016.5
20260903053253 26 350 3.2 4.8 0.00 0.00 0.00 83 1016.5
20260903053025 26 350 3.2 4.8 0.00 0.00 0.00 83 1016.4
20260903052932 26 350 3.2 4.8 0.00 0.00 0.00 83 1016.4
20260903052819 26 350 3.2 4.8 0.00 0.00 0.00 83 1016.4
20260903052726 26 343 3.2 4.8 0.00 0.00 0.00 83 1016.4
20260903052631 26 343 1.6 4.8 0.00 0.00 0.00 84 1016.4
20260903052523 26 343 3.2 4.8 0.00 0.00 0.00 84 1016.4
20260903052430 26 343 3.2 4.8 0.00 0.00 0.00 84 1016.4
20260903052336 26 343 3.2 4.8 0.00 0.00 0.00 84 1016.4
20260903052242 26 343 3.2 4.8 0.00 0.00 0.00 84 1016.5
20260903052149 26 343 1.6 4.8 0.00 0.00 0.00 84 1016.4
20260903052035 26 343 1.6 3.2 0.00 0.00 0.00 84 1016.5
20260903051926 26 343 1.6 3.2 0.00 0.00 0.00 84 1016.4
20260903051832 26 343 3.2 3.2 0.00 0.00 0.00 84 1016.5
20260903051802 26 343 3.2 3.2 0.00 0.00 0.00 84 1016.5
20260903051535 26 343 1.6 4.8 0.00 0.00 0.00 84 1016.5
20260903051421 26 343 3.2 4.8 0.00 0.00 0.00 83 1016.5
20260903051333 26 343 3.2 4.8 0.00 0.00 0.00 83 1016.5
20260903051219 26 343 3.2 4.8 0.00 0.00 0.00 84 1016.5
20260903051127 26 343 1.6 4.8 0.00 0.00 0.00 83 1016.5
20260903051033 26 343 1.6 4.8 0.00 0.00 0.00 83 1016.5
20260903050921 26 343 1.6 4.8 0.00 0.00 0.00 83 1016.5
20260903050847 26 343 1.6 4.8 0.00 0.00 0.00 83 1016.5
20260903050736 26 343 3.2 4.8 0.00 0.00 0.00 83 1016.5
20260903050622 26 343 3.2 4.8 0.00 0.00 0.00 83 1016.5
20260903050529 26 343 3.2 4.8 0.00 0.00 0.00 83 1016.5
20260903050457 26 343 3.2 4.8 0.00 0.00 0.00 83 1016.5
20260903050322 26 343 1.6 4.8 0.00 0.00 0.00 83 1016.4
20260903050257 26 343 1.6 4.8 0.00 0.00 0.00 84 1016.4
20260903050051 26 343 0.0 1.6 0.00 0.00 0.00 84 1016.4
20260903045936 26 343 0.0 0.0 0.00 0.00 0.00 84 1016.4
20260903045824 26 343 0.0 0.0 0.00 0.00 0.00 84 1016.4
20260903045731 26 343 0.0 0.0 0.00 0.00 0.00 85 1016.4
20260903045622 26 343 0.0 0.0 0.00 0.00 0.00 85 1016.4
20260903045530 26 343 0.0 0.0 0.00 0.00 0.00 85 1016.4
20260903045417 26 343 0.0 0.0 0.00 0.00 0.00 85 1016.3
20260903045343 26 343 0.0 0.0 0.00 0.00 0.00 85 1016.3
20260903045228 26 343 0.0 0.0 0.00 0.00 0.00 85 1016.3
20260903045156 26 343 0.0 0.0 0.00 0.00 0.00 85 1016.4
20260903045022 26 343 0.0 0.0 0.00 0.00 0.00 85 1016.3
20260903044935 26 343 0.0 0.0 0.00 0.00 0.00 84 1016.4
20260903044821 26 343 0.0 0.0 0.00 0.00 0.00 84 1016.3
20260903044751 26 343 0.0 0.0 0.00 0.00 0.00 84 1016.3
20260903044524 26 343 0.0 0.0 0.00 0.00 0.00 84 1016.4
20260903044434 26 343 0.0 0.0 0.00 0.00 0.00 83 1016.3
20260903044322 26 343 0.0 0.0 0.00 0.00 0.00 83 1016.3
20260903044228 26 343 0.0 0.0 0.00 0.00 0.00 83 1016.3
20260903044134 26 343 0.0 0.0 0.00 0.00 0.00 82 1016.3
20260903044022 26 343 0.0 0.0 0.00 0.00 0.00 82 1016.3
20260903043929 26 343 0.0 0.0 0.00 0.00 0.00 81 1016.4
20260903043822 26 343 0.0 0.0 0.00 0.00 0.00 81 1016.4
20260903043750 26 343 0.0 0.0 0.00 0.00 0.00 81 1016.4
20260903043616 26 343 0.0 0.0 0.00 0.00 0.00 81 1016.4
20260903043523 26 343 0.0 0.0 0.00 0.00 0.00 80 1016.4
20260903043450 26 343 0.0 0.0 0.00 0.00 0.00 81 1016.3
20260903043336 26 343 0.0 0.0 0.00 0.00 0.00 81 1016.4
20260903043252 26 343 0.0 0.0 0.00 0.00 0.00 81 1016.4
20260903043043 26 343 0.0 0.0 0.00 0.00 0.00 81 1016.3
20260903042929 26 343 0.0 0.0 0.00 0.00 0.00 81 1016.4
20260903042836 26 343 0.0 0.0 0.00 0.00 0.00 82 1016.3
20260903042722 26 343 0.0 0.0 0.00 0.00 0.00 83 1016.4
20260903042634 26 343 0.0 0.0 0.00 0.00 0.00 83 1016.3
20260903042522 26 343 0.0 0.0 0.00 0.00 0.00 83 1016.4
20260903042429 26 343 0.0 0.0 0.00 0.00 0.00 83 1016.3
20260903042317 26 343 0.0 0.0 0.00 0.00 0.00 83 1016.3
20260903042243 26 343 0.0 0.0 0.00 0.00 0.00 83 1016.3
20260903042148 26 343 0.0 0.0 0.00 0.00 0.00 83 1016.4
20260903042017 27 343 0.0 0.0 0.00 0.00 0.00 83 1016.4
20260903041924 26 343 0.0 0.0 0.00 0.00 0.00 83 1016.3
20260903041822 26 343 0.0 0.0 0.00 0.00 0.00 83 1016.3
20260903041535 26 343 0.0 0.0 0.00 0.00 0.00 83 1016.2
20260903041427 27 343 0.0 0.0 0.00 0.00 0.00 83 1016.3
20260903041333 27 343 0.0 0.0 0.00 0.00 0.00 83 1016.3
20260903041219 27 343 0.0 0.0 0.00 0.00 0.00 83 1016.2
20260903041127 27 343 0.0 0.0 0.00 0.00 0.00 83 1016.2
20260903041054 26 343 0.0 0.0 0.00 0.00 0.00 83 1016.2
20260903040919 26 343 0.0 0.0 0.00 0.00 0.00 83 1016.2
20260903040829 26 343 0.0 0.0 0.00 0.00 0.00 83 1016.3
20260903040717 26 343 0.0 0.0 0.00 0.00 0.00 83 1016.2
20260903040623 26 343 0.0 1.6 0.00 0.00 0.00 82 1016.2
20260903040529 26 343 0.0 3.2 0.00 0.00 0.00 81 1016.2
20260903040417 26 343 0.0 3.2 0.00 0.00 0.00 81 1016.2
20260903040343 26 343 0.0 3.2 0.00 0.00 0.00 81 1016.3
20260903040257 26 343 0.0 3.2 0.00 0.00 0.00 82 1016.3
20260903040029 26 343 0.0 3.2 0.00 0.00 0.00 82 1016.2
20260903035936 26 343 0.0 3.2 0.00 0.00 0.00 81 1016.3
20260903035823 26 343 0.0 3.2 0.00 0.00 0.00 80 1016.2
20260903035733 26 343 1.6 3.2 0.00 0.00 0.00 80 1016.2
20260903035619 26 343 1.6 3.2 0.00 0.00 0.00 80 1016.2
20260903035527 27 343 0.0 3.2 0.00 0.00 0.00 81 1016.3
20260903035455 27 343 0.0 0.0 0.00 0.00 0.00 81 1016.2
20260903035320 27 343 0.0 0.0 0.00 0.00 0.00 80 1016.2
20260903035246 27 343 0.0 0.0 0.00 0.00 0.00 80 1016.2
20260903035132 27 343 0.0 0.0 0.00 0.00 0.00 80 1016.2
20260903035023 27 310 0.0 0.0 0.00 0.00 0.00 80 1016.2
20260903034950 27 307 0.0 0.0 0.00 0.00 0.00 80 1016.3
20260903034835 27 307 0.0 0.0 0.00 0.00 0.00 80 1016.3
20260903034805 27 307 0.0 0.0 0.00 0.00 0.00 80 1016.3
20260903034521 27 307 0.0 0.0 0.00 0.00 0.00 80 1016.3
20260903034428 27 307 0.0 0.0 0.00 0.00 0.00 81 1016.3
20260903034334 27 307 0.0 0.0 0.00 0.00 0.00 81 1016.4
20260903034222 27 307 0.0 0.0 0.00 0.00 0.00 80 1016.4
20260903034128 27 307 0.0 0.0 0.00 0.00 0.00 80 1016.4
20260903034035 27 307 0.0 0.0 0.00 0.00 0.00 81 1016.4
20260903033947 27 307 0.0 0.0 0.00 0.00 0.00 81 1016.4
20260903033853 27 307 0.0 0.0 0.00 0.00 0.00 81 1016.4
20260903033719 27 307 0.0 0.0 0.00 0.00 0.00 81 1016.4
20260903033646 27 307 0.0 0.0 0.00 0.00 0.00 80 1016.4
20260903033532 27 307 0.0 0.0 0.00 0.00 0.00 80 1016.4
20260903033440 27 307 0.0 0.0 0.00 0.00 0.00 81 1016.4
20260903033301 27 307 0.0 0.0 0.00 0.00 0.00 81 1016.5
20260903033034 27 307 0.0 0.0 0.00 0.00 0.00 81 1016.4
20260903032921 27 307 0.0 0.0 0.00 0.00 0.00 81 1016.5
20260903032828 27 307 0.0 0.0 0.00 0.00 0.00 81 1016.5
20260903032756 27 307 0.0 0.0 0.00 0.00 0.00 81 1016.6
20260903032626 27 307 0.0 0.0 0.00 0.00 0.00 81 1016.5
20260903032532 27 307 0.0 0.0 0.00 0.00 0.00 81 1016.5
20260903032439 27 307 0.0 0.0 0.00 0.00 0.00 81 1016.5
20260903032345 27 307 0.0 0.0 0.00 0.00 0.00 81 1016.5
20260903032232 27 307 0.0 0.0 0.00 0.00 0.00 81 1016.5
20260903032138 27 307 0.0 0.0 0.00 0.00 0.00 81 1016.5
20260903032045 27 307 0.0 0.0 0.00 0.00 0.00 82 1016.5
20260903031929 27 307 0.0 0.0 0.00 0.00 0.00 82 1016.5
20260903031900 27 307 0.0 0.0 0.00 0.00 0.00 82 1016.5
20260903031809 27 307 0.0 0.0 0.00 0.00 0.00 81 1016.5
20260903031522 27 307 0.0 0.0 0.00 0.00 0.00 81 1016.5
20260903031429 27 307 0.0 0.0 0.00 0.00 0.00 80 1016.5
20260903031320 27 307 0.0 0.0 0.00 0.00 0.00 80 1016.5
20260903031227 27 307 0.0 0.0 0.00 0.00 0.00 80 1016.5
20260903031135 27 307 0.0 0.0 0.00 0.00 0.00 80 1016.5
20260903031022 27 307 0.0 0.0 0.00 0.00 0.00 80 1016.5
20260903030930 27 307 0.0 0.0 0.00 0.00 0.00 80 1016.5
20260903030817 27 307 0.0 0.0 0.00 0.00 0.00 80 1016.4
20260903030747 27 307 0.0 0.0 0.00 0.00 0.00 80 1016.5
20260903030633 27 307 0.0 1.6 0.00 0.00 0.00 80 1016.5
20260903030520 27 307 0.0 3.2 0.00 0.00 0.00 80 1016.4
20260903030427 27 307 0.0 3.2 0.00 0.00 0.00 79 1016.5
20260903030308 27 307 0.0 3.2 0.00 0.00 0.00 79 1016.5
20260903030022 28 307 0.0 3.2 0.00 0.00 0.00 79 1016.4
20260903025929 28 307 0.0 3.2 0.00 0.00 0.00 79 1016.4
20260903025836 28 307 1.6 3.2 0.00 0.00 0.00 79 1016.4
20260903025722 28 307 1.6 3.2 0.00 0.00 0.00 79 1016.4
20260903025633 28 307 1.6 3.2 0.00 0.00 0.00 79 1016.3
20260903025539 28 307 0.0 3.2 0.00 0.00 0.00 79 1016.4
20260903025424 28 334 0.0 0.0 0.00 0.00 0.00 79 1016.3
20260903025332 28 334 0.0 0.0 0.00 0.00 0.00 79 1016.3
20260903025220 28 334 0.0 0.0 0.00 0.00 0.00 79 1016.3
20260903025149 28 334 0.0 0.0 0.00 0.00 0.00 78 1016.3
20260903025055 28 334 0.0 0.0 0.00 0.00 0.00 78 1016.3
20260903024925 28 334 0.0 1.6 0.00 0.00 0.00 78 1016.4
20260903024803 28 334 0.0 1.6 0.00 0.00 0.00 78 1016.4
20260903024536 28 334 0.0 1.6 0.00 0.00 0.00 78 1016.4
20260903024426 28 334 0.0 1.6 0.00 0.00 0.00 76 1016.3
20260903024334 28 334 0.0 1.6 0.00 0.00 0.00 76 1016.4
20260903024221 28 334 0.0 1.6 0.00 0.00 0.00 76 1016.4
20260903024127 28 334 0.0 1.6 0.00 0.00 0.00 76 1016.4
20260903024053 28 334 0.0 0.0 0.00 0.00 0.00 75 1016.4
20260903023920 28 334 0.0 0.0 0.00 0.00 0.00 75 1016.4
20260903023831 28 334 0.0 0.0 0.00 0.00 0.00 75 1016.4
20260903023717 28 334 0.0 0.0 0.00 0.00 0.00 75 1016.4
20260903023624 28 334 0.0 0.0 0.00 0.00 0.00 75 1016.3
20260903023530 28 334 0.0 0.0 0.00 0.00 0.00 75 1016.3
20260903023417 28 334 0.0 0.0 0.00 0.00 0.00 75 1016.3
20260903023345 28 334 0.0 0.0 0.00 0.00 0.00 75 1016.3
20260903023259 28 334 0.0 0.0 0.00 0.00 0.00 75 1016.3
20260903023031 28 334 0.0 0.0 0.00 0.00 0.00 75 1016.4
20260903022919 28 334 0.0 0.0 0.00 0.00 0.00 75 1016.3
20260903022826 28 334 0.0 0.0 0.00 0.00 0.00 75 1016.4
20260903022732 28 334 0.0 0.0 0.00 0.00 0.00 75 1016.4
20260903022622 28 334 0.0 0.0 0.00 0.00 0.00 75 1016.3
20260903022530 28 334 0.0 0.0 0.00 0.00 0.00 75 1016.3
20260903022416 28 334 0.0 0.0 0.00 0.00 0.00 75 1016.3
20260903022323 28 334 0.0 0.0 0.00 0.00 0.00 75 1016.3
20260903022229 28 334 0.0 0.0 0.00 0.00 0.00 75 1016.3
20260903022120 28 334 0.0 0.0 0.00 0.00 0.00 75 1016.3
20260903022027 28 334 0.0 0.0 0.00 0.00 0.00 74 1016.3
20260903021935 28 334 0.0 0.0 0.00 0.00 0.00 74 1016.4
20260903021823 28 334 0.0 0.0 0.00 0.00 0.00 74 1016.3
20260903021751 28 334 0.0 0.0 0.00 0.00 0.00 74 1016.4
20260903021529 28 334 0.0 0.0 0.00 0.00 0.00 74 1016.3
20260903021435 28 334 0.0 0.0 0.00 0.00 0.00 74 1016.4
20260903021322 28 334 0.0 0.0 0.00 0.00 0.00 74 1016.4
20260903021229 28 334 0.0 0.0 0.00 0.00 0.00 74 1016.3
20260903021135 28 334 0.0 0.0 0.00 0.00 0.00 74 1016.3
20260903021025 28 334 0.0 0.0 0.00 0.00 0.00 74 1016.3
20260903020934 28 334 0.0 0.0 0.00 0.00 0.00 74 1016.3
20260903020820 28 334 0.0 0.0 0.00 0.00 0.00 74 1016.2
20260903020727 28 334 0.0 0.0 0.00 0.00 0.00 74 1016.3
20260903020635 28 334 0.0 0.0 0.00 0.00 0.00 74 1016.2
20260903020520 28 334 0.0 0.0 0.00 0.00 0.00 73 1016.3
20260903020431 28 334 0.0 0.0 0.00 0.00 0.00 73 1016.3
20260903020310 28 334 0.0 0.0 0.00 0.00 0.00 73 1016.3
20260903020022 28 334 0.0 0.0 0.00 0.00 0.00 73 1016.4
20260903015934 28 334 0.0 0.0 0.00 0.00 0.00 72 1016.3
20260903015819 28 334 0.0 0.0 0.00 0.00 0.00 72 1016.3
20260903015745 28 334 0.0 0.0 0.00 0.00 0.00 72 1016.3
20260903015630 29 334 0.0 0.0 0.00 0.00 0.00 72 1016.4
20260903015556 29 334 0.0 1.6 0.00 0.00 0.00 72 1016.3
20260903015424 29 334 0.0 3.2 0.00 0.00 0.00 72 1016.4
20260903015332 29 334 0.0 3.2 0.00 0.00 0.00 72 1016.3
20260903015222 29 334 0.0 3.2 0.00 0.00 0.00 72 1016.3
20260903015129 29 334 0.0 3.2 0.00 0.00 0.00 71 1016.3
20260903015056 29 334 0.0 3.2 0.00 0.00 0.00 71 1016.3
20260903014922 29 334 0.0 3.2 0.00 0.00 0.00 71 1016.3
20260903014802 29 334 1.6 3.2 0.00 0.00 0.00 71 1016.2
20260903014556 29 334 1.6 3.2 0.00 0.00 0.00 71 1016.3
20260903014421 29 334 1.6 3.2 0.00 0.00 0.00 72 1016.3
20260903014328 29 334 0.0 3.2 0.00 0.00 0.00 72 1016.3
20260903014254 29 325 0.0 0.0 0.00 0.00 0.00 72 1016.2
20260903014120 29 325 0.0 0.0 0.00 0.00 0.00 72 1016.2
20260903014032 30 325 0.0 0.0 0.00 0.00 0.00 72 1016.3
20260903013919 30 325 0.0 0.0 0.00 0.00 0.00 73 1016.3
20260903013827 30 325 0.0 0.0 0.00 0.00 0.00 72 1016.2
20260903013733 30 325 0.0 0.0 0.00 0.00 0.00 72 1016.3
20260903013620 30 325 0.0 0.0 0.00 0.00 0.00 72 1016.2
20260903013547 30 325 0.0 0.0 0.00 0.00 0.00 72 1016.2
20260903013452 30 325 0.0 0.0 0.00 0.00 0.00 72 1016.2
20260903013343 30 325 0.0 0.0 0.00 0.00 0.00 72 1016.1
20260903013253 30 325 0.0 0.0 0.00 0.00 0.00 72 1016.1
20260903013026 30 5 0.0 0.0 0.00 0.00 0.00 72 1016.1
20260903012933 30 5 0.0 0.0 0.00 0.00 0.00 72 1016.1
20260903012824 30 5 0.0 0.0 0.00 0.00 0.00 72 1016.0
20260903012731 30 5 0.0 0.0 0.00 0.00 0.00 71 1016.1
20260903012619 30 5 0.0 0.0 0.00 0.00 0.00 71 1016.0
20260903012526 30 5 0.0 0.0 0.00 0.00 0.00 70 1016.0
20260903012434 30 5 0.0 0.0 0.00 0.00 0.00 71 1016.0
20260903012321 30 5 0.0 0.0 0.00 0.00 0.00 71 1016.0
20260903012253 30 5 0.0 0.0 0.00 0.00 0.00 70 1016.0
20260903012119 30 5 0.0 0.0 0.00 0.00 0.00 71 1016.0
20260903012026 30 5 0.0 0.0 0.00 0.00 0.00 70 1016.0
20260903011933 30 5 0.0 0.0 0.00 0.00 0.00 70 1015.9
20260903011818 30 5 0.0 0.0 0.00 0.00 0.00 70 1016.0
20260903011752 30 5 0.0 0.0 0.00 0.00 0.00 68 1015.9
20260903011545 30 5 0.0 1.6 0.00 0.00 0.00 67 1015.9
20260903011432 30 5 0.0 1.6 0.00 0.00 0.00 67 1015.9
20260903011317 30 5 0.0 3.2 0.00 0.00 0.00 67 1015.8
20260903011226 30 5 0.0 3.2 0.00 0.00 0.00 67 1015.9
20260903011134 30 5 0.0 3.2 0.00 0.00 0.00 67 1015.9
20260903011026 30 5 0.0 4.8 0.00 0.00 0.00 67 1015.7
20260903010932 30 5 0.0 4.8 0.00 0.00 0.00 67 1015.8
20260903010819 30 5 0.0 4.8 0.00 0.00 0.00 67 1015.8
20260903010727 30 5 0.0 4.8 0.00 0.00 0.00 66 1015.8
20260903010634 30 5 1.6 4.8 0.00 0.00 0.00 65 1015.7
20260903010542 30 5 1.6 4.8 0.00 0.00 0.00 65 1015.8
20260903010432 30 5 3.2 4.8 0.00 0.00 0.00 65 1015.8
20260903010308 31 5 3.2 6.4 0.00 0.00 0.00 64 1015.7
20260903010023 31 5 3.2 6.4 0.00 0.00 0.00 64 1015.9
20260903005933 31 5 3.2 6.4 0.00 0.00 0.00 65 1015.7
20260903005840 31 14 3.2 6.4 0.00 0.00 0.00 64 1015.8
20260903005727 31 26 3.2 6.4 0.00 0.00 0.00 64 1015.7
20260903005634 31 5 4.8 6.4 0.00 0.00 0.00 64 1015.9
20260903005542 31 5 4.8 6.4 0.00 0.00 0.00 64 1015.7
20260903005428 31 5 4.8 6.4 0.00 0.00 0.00 64 1015.8
20260903005318 31 5 3.2 6.4 0.00 0.00 0.00 64 1015.8
20260903005224 31 360 1.6 4.8 0.00 0.00 0.00 65 1015.7
20260903005130 31 334 0.0 0.0 0.00 0.00 0.00 65 1015.8
20260903005038 31 334 0.0 0.0 0.00 0.00 0.00 65 1015.7
20260903004923 31 334 0.0 0.0 0.00 0.00 0.00 65 1015.8
20260903004830 31 334 0.0 0.0 0.00 0.00 0.00 64 1015.7
20260903004804 31 334 0.0 0.0 0.00 0.00 0.00 63 1015.7
20260903004516 32 334 0.0 1.6 0.00 0.00 0.00 64 1015.6
20260903004423 32 334 0.0 3.2 0.00 0.00 0.00 64 1015.6
20260903004329 32 334 0.0 3.2 0.00 0.00 0.00 64 1015.6
20260903004236 32 334 0.0 3.2 0.00 0.00 0.00 64 1015.6
20260903004148 32 334 0.0 3.2 0.00 0.00 0.00 63 1015.7
20260903004033 32 334 0.0 3.2 0.00 0.00 0.00 63 1015.6
20260903003940 32 334 0.0 3.2 0.00 0.00 0.00 63 1015.6
20260903003827 32 334 0.0 3.2 0.00 0.00 0.00 62 1015.6
20260903003733 32 334 1.6 3.2 0.00 0.00 0.00 62 1015.7
20260903003639 32 334 1.6 3.2 0.00 0.00 0.00 62 1015.6
20260903003545 32 334 1.6 3.2 0.00 0.00 0.00 61 1015.7
20260903003417 32 334 1.6 3.2 0.00 0.00 0.00 61 1015.6
20260903003345 32 334 1.6 3.2 0.00 0.00 0.00 61 1015.6
20260903003315 32 334 1.6 3.2 0.00 0.00 0.00 60 1015.6
20260903003027 32 334 0.0 3.2 0.00 0.00 0.00 59 1015.6
20260903002932 32 202 0.0 1.6 0.00 0.00 0.00 60 1015.6
20260903002840 32 202 0.0 1.6 0.00 0.00 0.00 60 1015.6
20260903002730 32 202 0.0 4.8 0.00 0.00 0.00 61 1015.6
20260903002656 32 202 0.0 4.8 0.00 0.00 0.00 60 1015.6
20260903002543 32 202 0.0 4.8 0.00 0.00 0.00 59 1015.6
20260903002428 32 202 0.0 4.8 0.00 0.00 0.00 59 1015.6
20260903002316 32 202 0.0 4.8 0.00 0.00 0.00 58 1015.6
20260903002224 32 202 0.0 4.8 0.00 0.00 0.00 58 1015.6
20260903002135 32 202 0.0 4.8 0.00 0.00 0.00 58 1015.7
20260903002041 33 202 1.6 4.8 0.00 0.00 0.00 58 1015.6
20260903001925 33 202 3.2 4.8 0.00 0.00 0.00 59 1015.7
20260903001832 33 202 3.2 4.8 0.00 0.00 0.00 58 1015.6
20260903001802 33 207 3.2 4.8 0.00 0.00 0.00 58 1015.6
20260903001554 33 172 1.6 4.8 0.00 0.00 0.00 57 1015.6
20260903001424 33 136 1.6 3.2 0.00 0.00 0.00 57 1015.6
20260903001332 33 136 1.6 3.2 0.00 0.00 0.00 57 1015.6
20260903001219 33 136 1.6 4.8 0.00 0.00 0.00 57 1015.6
20260903001146 33 136 1.6 4.8 0.00 0.00 0.00 57 1015.6
20260903001033 33 137 1.6 4.8 0.00 0.00 0.00 56 1015.5
20260903000939 33 141 1.6 4.8 0.00 0.00 0.00 56 1015.5
20260903000829 33 132 3.2 4.8 0.00 0.00 0.00 56 1015.5
20260903000735 33 114 1.6 6.4 0.00 0.00 0.00 56 1015.5
20260903000624 33 114 1.6 6.4 0.00 0.00 0.00 56 1015.5
20260903000530 33 114 3.2 6.4 0.00 0.00 0.00 55 1015.5
20260903000418 33 114 3.2 6.4 0.00 0.00 0.00 55 1015.5
20260903000325 33 114 3.2 6.4 0.00 0.00 0.00 55 1015.5
20260903000258 33 120 3.2 6.4 0.00 0.00 0.00 56 1015.5
20260903000030 33 119 3.2 6.4 0.00 0.00 0.00 56 1015.5
20260902235936 33 117 4.8 6.4 0.00 0.00 0.00 56 1015.5
20260902235843 33 126 3.2 6.4 0.00 0.00 0.00 56 1015.5
20260902235728 33 121 1.6 4.8 0.00 0.00 0.00 57 1015.5
20260902235620 34 32 1.6 6.4 0.00 0.00 0.00 55 1015.5
20260902235547 34 32 1.6 6.4 0.00 0.00 0.00 54 1015.5
20260902235454 34 32 1.6 6.4 0.00 0.00 0.00 54 1015.5
20260902235320 34 32 1.6 6.4 0.00 0.00 0.00 54 1015.5
20260902235226 34 32 1.6 6.4 0.00 0.00 0.00 55 1015.5
20260902235132 34 32 1.6 6.4 0.00 0.00 0.00 55 1015.5
20260902235022 34 32 3.2 6.4 0.00 0.00 0.00 55 1015.5
20260902234928 34 32 3.2 6.4 0.00 0.00 0.00 54 1015.5
20260902234836 34 36 4.8 6.4 0.00 0.00 0.00 54 1015.6
20260902234805 34 40 4.8 8.0 0.00 0.00 0.00 53 1015.6
20260902234518 34 52 4.8 8.0 0.00 0.00 0.00 52 1015.6
20260902234448 34 34 4.8 8.0 0.00 0.00 0.00 52 1015.6
20260902234335 34 36 4.8 8.0 0.00 0.00 0.00 52 1015.6
20260902234221 35 42 4.8 8.0 0.00 0.00 0.00 52 1015.6
20260902234127 35 36 6.4 8.0 0.00 0.00 0.00 52 1015.7
20260902234035 35 37 6.4 8.0 0.00 0.00 0.00 51 1015.6
20260902233921 35 36 6.4 8.0 0.00 0.00 0.00 51 1015.6
20260902233833 35 38 4.8 6.4 0.00 0.00 0.00 51 1015.6
20260902233740 35 40 4.8 6.4 0.00 0.00 0.00 51 1015.6
20260902233626 35 38 4.8 6.4 0.00 0.00 0.00 51 1015.6
20260902233534 35 50 4.8 6.4 0.00 0.00 0.00 50 1015.6
20260902233421 35 34 4.8 6.4 0.00 0.00 0.00 50 1015.7
20260902233328 35 33 4.8 6.4 0.00 0.00 0.00 50 1015.6
20260902233301 35 27 4.8 6.4 0.00 0.00 0.00 50 1015.6
20260902233035 35 39 4.8 6.4 0.00 0.00 0.00 50 1015.6
20260902232920 35 30 4.8 6.4 0.00 0.00 0.00 50 1015.8
20260902232827 35 49 4.8 6.4 0.00 0.00 0.00 50 1015.7
20260902232719 35 57 4.8 6.4 0.00 0.00 0.00 50 1015.6
20260902232625 35 32 4.8 6.4 0.00 0.00 0.00 50 1015.7
20260902232532 35 28 3.2 6.4 0.00 0.00 0.00 49 1015.6
20260902232419 35 5 3.2 6.4 0.00 0.00 0.00 49 1015.6
20260902232346 35 50 4.8 8.0 0.00 0.00 0.00 48 1015.6
20260902232231 35 38 4.8 8.0 0.00 0.00 0.00 48 1015.6
20260902232122 35 37 4.8 8.0 0.00 0.00 0.00 49 1015.6
20260902232028 35 36 4.8 8.0 0.00 0.00 0.00 48 1015.6
20260902231954 36 46 4.8 8.0 0.00 0.00 0.00 48 1015.6
20260902231900 36 49 4.8 8.0 0.00 0.00 0.00 48 1015.6
20260902231810 36 80 4.8 8.0 0.00 0.00 0.00 48 1015.6
20260902231526 36 70 4.8 8.0 0.00 0.00 0.00 48 1015.6
20260902231434 36 43 3.2 6.4 0.00 0.00 0.00 47 1015.6
20260902231321 36 26 3.2 6.4 0.00 0.00 0.00 48 1015.7
20260902231229 36 49 3.2 8.0 0.00 0.00 0.00 47 1015.7
20260902231117 36 91 4.8 8.0 0.00 0.00 0.00 47 1015.6
20260902231024 36 68 3.2 8.0 0.00 0.00 0.00 46 1015.7
20260902230954 36 73 3.2 8.0 0.00 0.00 0.00 46 1015.7
20260902230820 36 65 3.2 8.0 0.00 0.00 0.00 46 1015.7
20260902230726 36 82 3.2 8.0 0.00 0.00 0.00 46 1015.7
20260902230633 36 70 3.2 8.0 0.00 0.00 0.00 47 1015.8
20260902230519 36 44 4.8 8.0 0.00 0.00 0.00 47 1015.7
20260902230427 36 143 4.8 9.7 0.00 0.00 0.00 47 1015.8
20260902230338 36 63 4.8 9.7 0.00 0.00 0.00 47 1015.7
20260902230308 36 86 4.8 9.7 0.00 0.00 0.00 47 1015.7
20260902230021 36 71 4.8 9.7 0.00 0.00 0.00 47 1015.6
20260902225948 36 69 4.8 9.7 0.00 0.00 0.00 47 1015.7
20260902225817 36 59 4.8 9.7 0.00 0.00 0.00 47 1015.8
20260902225745 36 68 6.4 9.7 0.00 0.00 0.00 47 1015.8
20260902225652 36 75 6.4 9.7 0.00 0.00 0.00 47 1015.8
20260902225520 36 74 6.4 9.7 0.00 0.00 0.00 47 1015.8
20260902225427 36 87 6.4 9.7 0.00 0.00 0.00 47 1015.8
20260902225333 36 80 4.8 11.3 0.00 0.00 0.00 47 1015.8
20260902225221 36 73 4.8 9.7 0.00 0.00 0.00 46 1015.7
20260902225131 36 74 4.8 9.7 0.00 0.00 0.00 46 1015.7
20260902225018 36 55 3.2 9.7 0.00 0.00 0.00 46 1015.9
20260902224945 36 76 4.8 9.7 0.00 0.00 0.00 46 1015.8
20260902224832 36 76 4.8 9.7 0.00 0.00 0.00 46 1015.8
20260902224803 36 69 3.2 9.7 0.00 0.00 0.00 46 1015.8
20260902224519 36 78 3.2 8.0 0.00 0.00 0.00 47 1015.7
20260902224428 36 88 4.8 8.0 0.00 0.00 0.00 47 1015.8
20260902224355 36 111 4.8 9.7 0.00 0.00 0.00 46 1015.8
20260902224221 36 70 6.4 9.7 0.00 0.00 0.00 46 1015.9
20260902224127 36 72 4.8 9.7 0.00 0.00 0.00 46 1015.9
20260902224018 36 82 4.8 9.7 0.00 0.00 0.00 47 1015.9
20260902223926 36 83 4.8 9.7 0.00 0.00 0.00 47 1015.8
20260902223833 36 53 4.8 9.7 0.00 0.00 0.00 47 1015.7
20260902223720 36 83 4.8 9.7 0.00 0.00 0.00 46 1015.9
20260902223646 36 103 4.8 9.7 0.00 0.00 0.00 46 1015.8
20260902223553 36 86 6.4 9.7 0.00 0.00 0.00 46 1015.7
20260902223419 36 75 4.8 9.7 0.00 0.00 0.00 46 1015.9
20260902223351 36 42 4.8 11.3 0.00 0.00 0.00 46 1015.9
20260902223300 36 62 3.2 9.7 0.00 0.00 0.00 46 1015.9
20260902223032 36 69 4.8 9.7 0.00 0.00 0.00 47 1015.9
20260902222919 36 57 4.8 9.7 0.00 0.00 0.00 47 1015.9
20260902222827 36 49 4.8 9.7 0.00 0.00 0.00 46 1015.9
20260902222718 36 46 6.4 9.7 0.00 0.00 0.00 48 1015.9
20260902222626 36 44 4.8 9.7 0.00 0.00 0.00 47 1015.9
20260902222534 36 18 3.2 8.0 0.00 0.00 0.00 48 1015.9
20260902222420 36 77 3.2 11.3 0.00 0.00 0.00 48 1015.9
20260902222328 36 79 3.2 11.3 0.00 0.00 0.00 48 1015.9
20260902222239 36 82 3.2 11.3 0.00 0.00 0.00 47 1015.9
20260902222124 36 44 4.8 11.3 0.00 0.00 0.00 47 1015.9
20260902222030 36 71 3.2 11.3 0.00 0.00 0.00 47 1015.9
20260902221917 36 69 4.8 11.3 0.00 0.00 0.00 48 1015.9
20260902221824 36 143 6.4 11.3 0.00 0.00 0.00 47 1015.9
20260902221758 36 88 8.0 11.3 0.00 0.00 0.00 47 1015.9
20260902221531 36 38 6.4 11.3 0.00 0.00 0.00 47 1015.8
20260902221417 36 35 4.8 9.7 0.00 0.00 0.00 47 1015.8
20260902221324 36 36 4.8 9.7 0.00 0.00 0.00 47 1015.9
20260902221231 36 74 6.4 9.7 0.00 0.00 0.00 48 1015.9
20260902221137 36 32 6.4 9.7 0.00 0.00 0.00 48 1015.9
20260902221027 36 38 4.8 9.7 0.00 0.00 0.00 47 1015.9
20260902220933 36 31 3.2 9.7 0.00 0.00 0.00 48 1016.0
20260902220820 36 69 4.8 9.7 0.00 0.00 0.00 49 1015.9
20260902220727 36 76 3.2 8.0 0.00 0.00 0.00 49 1015.8
20260902220635 36 112 3.2 8.0 0.00 0.00 0.00 47 1015.9